Time,TemperatureF,DewpointF,PressureIn,WindDirection,WindDirectionDegrees,WindSpeedMPH,WindSpeedGustMPH,Humidity,HourlyPrecipIn,Conditions,Clouds,dailyrainin,SolarRadiationWatts/m^2,SoftwareType,DateUTC
2013-04-05 00:02:00,44.5,34.2,30.07,NNW,343,0.0,0.0,67,0.00,CLR,,0.00,0.0,WeatherDisplay:10.37,2013-04-05 05:02:00,
2013-04-05 00:03:00,44.5,34.6,30.07,NNW,343,0.0,0.0,68,0.00,CLR,,0.00,0.0,WeatherDisplay:10.37,2013-04-05 05:03:00,
2013-04-05 00:04:00,44.3,34.4,30.07,NNW,343,0.0,0.0,68,0.00,CLR,,0.00,0.0,WeatherDisplay:10.37,2013-04-05 05:04:00,
2013-04-05 00:07:00,44.2,34.3,30.07,NNW,343,0.0,0.0,68,0.00,CLR,,0.00,0.0,WeatherDisplay:10.37,2013-04-05 05:07:00,
2013-04-05 00:08:00,44.2,34.3,30.07,NNW,343,0.0,0.0,68,0.00,CLR,,0.00,0.0,WeatherDisplay:10.37,2013-04-05 05:08:00,
2013-04-05 00:09:00,44.2,33.9,30.07,NNW,343,0.0,0.0,67,0.00,CLR,,0.00,0.0,WeatherDisplay:10.37,2013-04-05 05:09:00,
2013-04-05 00:13:00,44.1,33.8,30.07,NNW,343,0.0,0.0,67,0.00,CLR,,0.00,0.0,WeatherDisplay:10.37,2013-04-05 05:13:00,
2013-04-05 00:14:00,44.1,33.8,30.07,NNW,343,0.0,0.0,67,0.00,CLR,,0.00,0.0,WeatherDisplay:10.37,2013-04-05 05:14:00,
2013-04-05 00:15:00,44.0,33.4,30.07,NNW,343,0.0,0.0,66,0.00,CLR,,0.00,0.0,WeatherDisplay:10.37,2013-04-05 05:15:00,
2013-04-05 00:18:00,43.9,34.0,30.07,NNW,343,0.0,0.0,68,0.00,CLR,,0.00,0.0,WeatherDisplay:10.37,2013-04-05 05:18:00,
2013-04-05 00:19:00,43.9,33.6,30.07,NNW,343,0.0,0.0,67,0.00,CLR,,0.00,0.0,WeatherDisplay:10.37,2013-04-05 05:19:00,
2013-04-05 00:20:00,43.9,33.6,30.07,NNW,343,0.0,0.0,67,0.00,CLR,,0.00,0.0,WeatherDisplay:10.37,2013-04-05 05:20:00,
2013-04-05 00:23:00,44.0,33.7,30.07,NNW,343,0.0,0.0,67,0.00,CLR,,0.00,0.0,WeatherDisplay:10.37,2013-04-05 05:23:00,
2013-04-05 00:24:00,44.1,33.5,30.07,NNW,343,0.0,0.0,66,0.00,CLR,,0.00,0.0,WeatherDisplay:10.37,2013-04-05 05:24:00,
2013-04-05 00:25:00,44.1,33.5,30.07,NNW,343,0.0,0.0,66,0.00,CLR,,0.00,0.0,WeatherDisplay:10.37,2013-04-05 05:25:00,
2013-04-05 00:29:00,44.1,33.5,30.07,NNW,343,0.0,0.0,66,0.00,CLR,,0.00,0.0,WeatherDisplay:10.37,2013-04-05 05:29:00,
2013-04-05 00:30:00,44.1,33.8,30.07,NNW,343,0.0,0.0,67,0.00,CLR,,0.00,0.0,WeatherDisplay:10.37,2013-04-05 05:30:00,
2013-04-05 00:35:00,43.8,33.6,30.08,NNW,343,0.0,0.0,67,0.00,CLR,,0.00,0.0,WeatherDisplay:10.37,2013-04-05 05:35:00,
2013-04-05 00:40:00,43.7,33.5,30.08,NNW,343,0.0,0.0,67,0.00,CLR,,0.00,0.0,WeatherDisplay:10.37,2013-04-05 05:40:00,
2013-04-05 00:45:00,43.7,33.1,30.08,NNW,343,0.0,0.0,66,0.00,CLR,,0.00,0.0,WeatherDisplay:10.37,2013-04-05 05:45:00,
2013-04-05 00:46:00,43.8,33.2,30.08,NNW,343,0.1,1.0,66,0.00,CLR,,0.00,0.0,WeatherDisplay:10.37,2013-04-05 05:46:00,
2013-04-05 00:50:00,44.1,33.5,30.08,NNW,343,0.0,0.0,66,0.00,CLR,,0.00,0.0,WeatherDisplay:10.37,2013-04-05 05:50:00,
2013-04-05 00:51:00,44.1,33.5,30.08,NNW,343,0.0,0.0,66,0.00,CLR,,0.00,0.0,WeatherDisplay:10.37,2013-04-05 05:51:00,
2013-04-05 00:55:00,43.8,33.9,30.08,NNW,343,0.0,0.0,68,0.00,CLR,,0.00,0.0,WeatherDisplay:10.37,2013-04-05 05:55:00,
2013-04-05 00:56:00,43.8,33.6,30.08,NNW,343,0.0,0.0,67,0.00,CLR,,0.00,0.0,WeatherDisplay:10.37,2013-04-05 05:56:00,
2013-04-05 01:00:00,43.7,34.2,30.08,NNW,343,0.0,0.0,69,0.00,CLR,,0.00,0.0,WeatherDisplay:10.37,2013-04-05 06:00:00,
2013-04-05 01:01:00,43.7,34.2,30.08,NNW,343,0.0,0.0,69,0.00,CLR,,0.00,0.0,WeatherDisplay:10.37,2013-04-05 06:01:00,
2013-04-05 01:06:00,43.4,33.2,30.08,NNW,343,0.0,0.0,67,0.00,CLR,,0.00,0.0,WeatherDisplay:10.37,2013-04-05 06:06:00,
2013-04-05 01:07:00,43.5,32.9,30.08,NNW,343,0.0,0.0,66,0.00,CLR,,0.00,0.0,WeatherDisplay:10.37,2013-04-05 06:07:00,
2013-04-05 01:12:00,44.1,33.5,30.08,NNW,343,0.0,0.0,66,0.00,CLR,,0.00,0.0,WeatherDisplay:10.37,2013-04-05 06:12:00,
2013-04-05 01:17:00,43.5,33.6,30.08,NNW,343,0.0,0.0,68,0.00,CLR,,0.00,0.0,WeatherDisplay:10.37,2013-04-05 06:17:00,
2013-04-05 01:18:00,43.4,33.9,30.08,NNW,343,0.0,0.0,69,0.00,CLR,,0.00,0.0,WeatherDisplay:10.37,2013-04-05 06:18:00,
2013-04-05 01:22:00,43.2,33.7,30.08,NNW,343,0.0,0.0,69,0.00,CLR,,0.00,0.0,WeatherDisplay:10.37,2013-04-05 06:22:00,
2013-04-05 01:23:00,43.2,33.7,30.08,NNW,343,0.0,0.0,69,0.00,CLR,,0.00,0.0,WeatherDisplay:10.37,2013-04-05 06:23:00,
2013-04-05 01:27:00,43.3,33.1,30.08,NNW,343,0.0,0.0,67,0.00,CLR,,0.00,0.0,WeatherDisplay:10.37,2013-04-05 06:27:00,
2013-04-05 01:28:00,43.3,33.1,30.08,NNW,343,0.0,0.0,67,0.00,CLR,,0.00,0.0,WeatherDisplay:10.37,2013-04-05 06:28:00,
2013-04-05 01:29:00,43.4,33.2,30.08,NNW,343,0.0,0.0,67,0.00,CLR,,0.00,0.0,WeatherDisplay:10.37,2013-04-05 06:29:00,
2013-04-05 01:32:00,43.2,33.3,30.08,NNW,343,0.0,0.0,68,0.00,CLR,,0.00,0.0,WeatherDisplay:10.37,2013-04-05 06:32:00,
2013-04-05 01:33:00,43.3,33.4,30.08,NNW,343,0.0,0.0,68,0.00,CLR,,0.00,0.0,WeatherDisplay:10.37,2013-04-05 06:33:00,
2013-04-05 01:34:00,43.3,33.4,30.08,NNW,343,0.0,0.0,68,0.00,CLR,,0.00,0.0,WeatherDisplay:10.37,2013-04-05 06:34:00,
2013-04-05 01:37:00,43.1,33.3,30.08,NNW,343,0.0,0.0,68,0.00,CLR,,0.00,0.0,WeatherDisplay:10.37,2013-04-05 06:37:00,
2013-04-05 01:38:00,43.1,33.3,30.08,NNW,343,0.0,0.0,68,0.00,CLR,,0.00,0.0,WeatherDisplay:10.37,2013-04-05 06:38:00,
2013-04-05 01:39:00,43.1,33.3,30.08,NNW,343,0.0,0.0,68,0.00,CLR,,0.00,0.0,WeatherDisplay:10.37,2013-04-05 06:39:00,
2013-04-05 01:43:00,43.1,33.3,30.08,NNW,343,0.0,0.0,68,0.00,CLR,,0.00,0.0,WeatherDisplay:10.37,2013-04-05 06:43:00,
2013-04-05 01:44:00,43.0,33.2,30.08,NNW,343,0.0,0.0,68,0.00,CLR,,0.00,0.0,WeatherDisplay:10.37,2013-04-05 06:44:00,
2013-04-05 01:45:00,43.0,33.2,30.08,NNW,343,0.0,0.0,68,0.00,CLR,,0.00,0.0,WeatherDisplay:10.37,2013-04-05 06:45:00,
2013-04-05 01:48:00,42.9,33.4,30.08,NNW,343,0.0,0.0,69,0.00,CLR,,0.00,0.0,WeatherDisplay:10.37,2013-04-05 06:48:00,
2013-04-05 01:50:00,42.8,33.7,30.08,NNW,343,0.0,0.0,70,0.00,CLR,,0.00,0.0,WeatherDisplay:10.37,2013-04-05 06:50:00,
2013-04-05 01:53:00,42.6,33.9,30.08,NNW,343,0.0,0.0,71,0.00,CLR,,0.00,0.0,WeatherDisplay:10.37,2013-04-05 06:53:00,
2013-04-05 01:54:00,42.5,34.1,30.08,NNW,343,0.0,0.0,72,0.00,CLR,,0.00,0.0,WeatherDisplay:10.37,2013-04-05 06:54:00,
2013-04-05 01:55:00,42.5,34.1,30.08,NNW,343,0.0,0.0,72,0.00,CLR,,0.00,0.0,WeatherDisplay:10.37,2013-04-05 06:55:00,
2013-04-05 01:58:00,42.6,33.5,30.08,NNW,343,0.0,0.0,70,0.00,CLR,,0.00,0.0,WeatherDisplay:10.37,2013-04-05 06:58:00,
2013-04-05 02:00:00,42.6,33.1,30.08,NNW,343,0.0,0.0,69,0.00,CLR,,0.00,0.0,WeatherDisplay:10.37,2013-04-05 07:00:00,
2013-04-05 02:04:00,42.7,33.2,30.08,NNW,343,0.0,0.0,69,0.00,CLR,,0.00,0.0,WeatherDisplay:10.37,2013-04-05 07:04:00,
2013-04-05 02:05:00,42.7,33.2,30.08,NNW,343,0.0,0.0,69,0.00,CLR,,0.00,0.0,WeatherDisplay:10.37,2013-04-05 07:05:00,
2013-04-05 02:09:00,42.4,33.3,30.08,NNW,343,0.0,0.0,70,0.00,CLR,,0.00,0.0,WeatherDisplay:10.37,2013-04-05 07:09:00,
2013-04-05 02:10:00,42.3,33.2,30.08,NNW,343,0.0,0.0,70,0.00,CLR,,0.00,0.0,WeatherDisplay:10.37,2013-04-05 07:10:00,
2013-04-05 02:14:00,42.3,33.9,30.08,NNW,343,0.0,0.0,72,0.00,CLR,,0.00,0.0,WeatherDisplay:10.37,2013-04-05 07:14:00,
2013-04-05 02:15:00,42.2,33.8,30.08,NNW,343,0.0,0.0,72,0.00,CLR,,0.00,0.0,WeatherDisplay:10.37,2013-04-05 07:15:00,
2013-04-05 02:16:00,42.2,33.5,30.08,NNW,343,0.0,0.0,71,0.00,CLR,,0.00,0.0,WeatherDisplay:10.37,2013-04-05 07:16:00,
2013-04-05 02:20:00,42.0,33.3,30.08,NNW,343,0.0,0.0,71,0.00,CLR,,0.00,0.0,WeatherDisplay:10.37,2013-04-05 07:20:00,
2013-04-05 02:22:00,42.0,33.6,30.08,NNW,343,0.0,0.0,72,0.00,CLR,,0.00,0.0,WeatherDisplay:10.37,2013-04-05 07:22:00,
2013-04-05 02:25:00,42.0,33.3,30.08,NNW,343,0.0,0.0,71,0.00,CLR,,0.00,0.0,WeatherDisplay:10.37,2013-04-05 07:25:00,
2013-04-05 02:26:00,42.0,33.6,30.08,NNW,343,0.0,0.0,72,0.00,CLR,,0.00,0.0,WeatherDisplay:10.37,2013-04-05 07:26:00,
2013-04-05 02:27:00,42.1,33.7,30.08,NNW,343,0.0,0.0,72,0.00,CLR,,0.00,0.0,WeatherDisplay:10.37,2013-04-05 07:27:00,
2013-04-05 02:30:00,41.9,34.6,30.08,NNW,343,0.0,0.0,75,0.00,CLR,,0.00,0.0,WeatherDisplay:10.37,2013-04-05 07:30:00,
2013-04-05 02:31:00,41.8,34.5,30.08,NNW,343,0.0,0.0,75,0.00,CLR,,0.00,0.0,WeatherDisplay:10.37,2013-04-05 07:31:00,
2013-04-05 02:32:00,41.8,34.1,30.08,NNW,343,0.0,0.0,74,0.00,CLR,,0.00,0.0,WeatherDisplay:10.37,2013-04-05 07:32:00,
2013-04-05 02:36:00,41.9,33.9,30.08,NNW,343,0.0,0.0,73,0.00,CLR,,0.00,0.0,WeatherDisplay:10.37,2013-04-05 07:36:00,
2013-04-05 02:37:00,41.9,33.9,30.08,NNW,343,0.0,0.0,73,0.00,CLR,,0.00,0.0,WeatherDisplay:10.37,2013-04-05 07:37:00,
2013-04-05 02:38:00,41.8,34.1,30.08,NNW,343,0.0,0.0,74,0.00,CLR,,0.00,0.0,WeatherDisplay:10.37,2013-04-05 07:38:00,
2013-04-05 02:42:00,41.6,33.6,30.08,NNW,343,0.0,0.0,73,0.00,CLR,,0.00,0.0,WeatherDisplay:10.37,2013-04-05 07:42:00,
2013-04-05 02:43:00,41.5,33.8,30.08,NNW,343,0.0,0.0,74,0.00,CLR,,0.00,0.0,WeatherDisplay:10.37,2013-04-05 07:43:00,
2013-04-05 02:47:00,41.4,33.4,30.08,NNW,343,0.0,0.0,73,0.00,CLR,,0.00,0.0,WeatherDisplay:10.37,2013-04-05 07:47:00,
2013-04-05 02:48:00,41.4,33.4,30.08,NNW,343,0.0,0.0,73,0.00,CLR,,0.00,0.0,WeatherDisplay:10.37,2013-04-05 07:48:00,
2013-04-05 02:52:00,41.3,33.0,30.08,NNW,343,0.0,0.0,72,0.00,CLR,,0.00,0.0,WeatherDisplay:10.37,2013-04-05 07:52:00,
2013-04-05 02:54:00,41.4,33.4,30.08,NNW,343,0.0,0.0,73,0.00,CLR,,0.00,0.0,WeatherDisplay:10.37,2013-04-05 07:54:00,
2013-04-05 02:57:00,41.2,33.2,30.08,NNW,343,0.5,2.3,73,0.00,CLR,,0.00,0.0,WeatherDisplay:10.37,2013-04-05 07:57:00,
2013-04-05 03:00:00,41.3,33.3,30.07,NNW,343,0.7,1.2,73,0.00,CLR,,0.00,0.0,WeatherDisplay:10.37,2013-04-05 08:00:00,
2013-04-05 03:02:00,41.2,33.2,30.08,NNW,343,0.0,1.2,73,0.00,CLR,,0.00,0.0,WeatherDisplay:10.37,2013-04-05 08:02:00,
2013-04-05 03:03:00,41.2,33.5,30.08,NNW,343,0.0,1.2,74,0.00,CLR,,0.00,0.0,WeatherDisplay:10.37,2013-04-05 08:03:00,
2013-04-05 03:05:00,41.1,33.1,30.08,NNW,343,0.0,0.0,73,0.00,CLR,,0.00,0.0,WeatherDisplay:10.37,2013-04-05 08:05:00,
2013-04-05 03:07:00,41.2,33.2,30.08,NNW,343,0.2,1.2,73,0.00,CLR,,0.00,0.0,WeatherDisplay:10.37,2013-04-05 08:07:00,
2013-04-05 03:08:00,41.2,33.2,30.08,NNW,343,0.4,1.2,73,0.00,CLR,,0.00,0.0,WeatherDisplay:10.37,2013-04-05 08:08:00,
2013-04-05 03:11:00,41.1,33.4,30.08,NNW,343,0.0,0.0,74,0.00,CLR,,0.00,0.0,WeatherDisplay:10.37,2013-04-05 08:11:00,
2013-04-05 03:13:00,41.1,33.4,30.08,NNW,343,0.0,0.0,74,0.00,CLR,,0.00,0.0,WeatherDisplay:10.37,2013-04-05 08:13:00,
2013-04-05 03:16:00,41.0,33.0,30.08,NNW,343,0.0,0.0,73,0.00,CLR,,0.00,0.0,WeatherDisplay:10.37,2013-04-05 08:16:00,
2013-04-05 03:18:00,41.0,33.3,30.08,NNW,343,0.0,0.0,74,0.00,CLR,,0.00,0.0,WeatherDisplay:10.37,2013-04-05 08:18:00,
2013-04-05 03:19:00,41.0,33.0,30.08,NNW,343,0.0,0.0,73,0.00,CLR,,0.00,0.0,WeatherDisplay:10.37,2013-04-05 08:19:00,
2013-04-05 03:21:00,41.0,33.3,30.08,NNW,343,0.0,0.0,74,0.00,CLR,,0.00,0.0,WeatherDisplay:10.37,2013-04-05 08:21:00,
2013-04-05 03:23:00,41.1,33.4,30.08,NNW,343,0.0,0.0,74,0.00,CLR,,0.00,0.0,WeatherDisplay:10.37,2013-04-05 08:23:00,
2013-04-05 03:24:00,41.1,33.4,30.08,NNW,343,0.0,0.0,74,0.00,CLR,,0.00,0.0,WeatherDisplay:10.37,2013-04-05 08:24:00,
2013-04-05 03:26:00,41.1,33.4,30.08,NNW,343,0.0,0.0,74,0.00,CLR,,0.00,0.0,WeatherDisplay:10.37,2013-04-05 08:26:00,
2013-04-05 03:28:00,41.0,33.3,30.08,NNW,343,0.5,1.0,74,0.00,CLR,,0.00,0.0,WeatherDisplay:10.37,2013-04-05 08:28:00,
2013-04-05 03:29:00,41.0,33.7,30.08,NNW,343,0.6,1.2,75,0.00,CLR,,0.00,0.0,WeatherDisplay:10.37,2013-04-05 08:29:00,
2013-04-05 03:32:00,40.9,33.9,30.08,NNW,343,0.0,0.0,76,0.00,CLR,,0.00,0.0,WeatherDisplay:10.37,2013-04-05 08:32:00,
2013-04-05 03:33:00,40.9,33.9,30.08,NNW,343,0.0,0.0,76,0.00,CLR,,0.00,0.0,WeatherDisplay:10.37,2013-04-05 08:33:00,
2013-04-05 03:34:00,41.0,33.7,30.08,NNW,343,0.0,0.0,75,0.00,CLR,,0.00,0.0,WeatherDisplay:10.37,2013-04-05 08:34:00,
2013-04-05 03:35:00,41.0,33.7,30.08,NNW,343,0.0,0.0,75,0.00,CLR,,0.00,0.0,WeatherDisplay:10.37,2013-04-05 08:35:00,
2013-04-05 03:37:00,40.8,33.8,30.08,NNW,343,0.0,0.0,76,0.00,CLR,,0.00,0.0,WeatherDisplay:10.37,2013-04-05 08:37:00,
2013-04-05 03:38:00,40.7,33.7,30.08,NNW,343,0.0,0.0,76,0.00,CLR,,0.00,0.0,WeatherDisplay:10.37,2013-04-05 08:38:00,
2013-04-05 03:40:00,40.7,33.4,30.08,NNW,343,0.0,0.0,75,0.00,CLR,,0.00,0.0,WeatherDisplay:10.37,2013-04-05 08:40:00,
2013-04-05 03:41:00,40.6,33.3,30.08,NNW,343,0.0,0.0,75,0.00,CLR,,0.00,0.0,WeatherDisplay:10.37,2013-04-05 08:41:00,
2013-04-05 03:42:00,40.5,33.5,30.08,NNW,343,0.0,0.0,76,0.00,CLR,,0.00,0.0,WeatherDisplay:10.37,2013-04-05 08:42:00,
2013-04-05 03:43:00,40.5,34.2,30.08,NNW,343,0.0,0.0,78,0.00,CLR,,0.00,0.0,WeatherDisplay:10.37,2013-04-05 08:43:00,
2013-04-05 03:46:00,40.4,34.1,30.08,NNW,343,0.0,0.0,78,0.00,CLR,,0.00,0.0,WeatherDisplay:10.37,2013-04-05 08:46:00,
2013-04-05 03:47:00,40.3,33.7,30.08,NNW,343,0.0,0.0,77,0.00,CLR,,0.00,0.0,WeatherDisplay:10.37,2013-04-05 08:47:00,
2013-04-05 03:48:00,40.3,33.7,30.08,NNW,343,0.0,0.0,77,0.00,CLR,,0.00,0.0,WeatherDisplay:10.37,2013-04-05 08:48:00,
2013-04-05 03:51:00,40.3,33.3,30.08,NNW,343,0.0,0.0,76,0.00,CLR,,0.00,0.0,WeatherDisplay:10.37,2013-04-05 08:51:00,
2013-04-05 03:52:00,40.4,33.4,30.08,NNW,343,0.0,0.0,76,0.00,CLR,,0.00,0.0,WeatherDisplay:10.37,2013-04-05 08:52:00,
2013-04-05 03:53:00,40.4,33.4,30.08,NNW,343,0.6,2.0,76,0.00,CLR,,0.00,0.0,WeatherDisplay:10.37,2013-04-05 08:53:00,
2013-04-05 03:54:00,40.4,33.8,30.08,NNW,343,1.3,2.3,77,0.00,CLR,,0.00,0.0,WeatherDisplay:10.37,2013-04-05 08:54:00,
2013-04-05 03:56:00,40.2,33.6,30.08,NNW,343,0.0,0.0,77,0.00,CLR,,0.00,0.0,WeatherDisplay:10.37,2013-04-05 08:56:00,
2013-04-05 03:57:00,40.1,33.8,30.08,NNW,343,0.0,0.0,78,0.00,CLR,,0.00,0.0,WeatherDisplay:10.37,2013-04-05 08:57:00,
2013-04-05 03:59:00,39.9,33.6,30.08,NNW,343,0.0,0.0,78,0.00,CLR,,0.00,0.0,WeatherDisplay:10.37,2013-04-05 08:59:00,
2013-04-05 04:01:00,39.7,33.4,30.08,NNW,343,0.0,0.0,78,0.00,CLR,,0.00,0.0,WeatherDisplay:10.37,2013-04-05 09:01:00,
2013-04-05 04:03:00,39.7,33.4,30.08,NNW,343,0.0,0.0,78,0.00,CLR,,0.00,0.0,WeatherDisplay:10.37,2013-04-05 09:03:00,
2013-04-05 04:04:00,39.6,33.3,30.08,NNW,343,0.0,0.0,78,0.00,CLR,,0.00,0.0,WeatherDisplay:10.37,2013-04-05 09:04:00,
2013-04-05 04:05:00,39.7,33.4,30.08,NNW,343,0.0,0.0,78,0.00,CLR,,0.00,0.0,WeatherDisplay:10.37,2013-04-05 09:05:00,
2013-04-05 04:07:00,39.7,33.4,30.09,NNW,343,0.0,0.0,78,0.00,CLR,,0.00,0.0,WeatherDisplay:10.37,2013-04-05 09:07:00,
2013-04-05 04:08:00,39.8,33.2,30.08,NNW,343,0.0,0.0,77,0.00,CLR,,0.00,0.0,WeatherDisplay:10.37,2013-04-05 09:08:00,
2013-04-05 04:10:00,39.9,33.3,30.09,NNW,343,0.0,0.0,77,0.00,CLR,,0.00,0.0,WeatherDisplay:10.37,2013-04-05 09:10:00,
2013-04-05 04:12:00,39.9,33.3,30.09,NNW,343,0.0,0.0,77,0.00,CLR,,0.00,0.0,WeatherDisplay:10.37,2013-04-05 09:12:00,
2013-04-05 04:13:00,39.9,33.3,30.09,NNW,343,0.0,0.0,77,0.00,CLR,,0.00,0.0,WeatherDisplay:10.37,2013-04-05 09:13:00,
2013-04-05 04:15:00,39.8,33.2,30.09,NNW,343,0.0,0.0,77,0.00,CLR,,0.00,0.0,WeatherDisplay:10.37,2013-04-05 09:15:00,
2013-04-05 04:17:00,39.3,33.3,30.09,NNW,343,0.0,0.0,79,0.00,CLR,,0.00,0.0,WeatherDisplay:10.37,2013-04-05 09:17:00,
2013-04-05 04:18:00,39.3,33.6,30.09,NNW,343,0.0,0.0,80,0.00,CLR,,0.00,0.0,WeatherDisplay:10.37,2013-04-05 09:18:00,
2013-04-05 04:20:00,39.1,33.5,30.09,NNW,343,0.0,0.0,80,0.00,CLR,,0.00,0.0,WeatherDisplay:10.37,2013-04-05 09:20:00,
2013-04-05 04:22:00,38.9,32.9,30.09,NNW,343,0.0,0.0,79,0.00,CLR,,0.00,0.0,WeatherDisplay:10.37,2013-04-05 09:22:00,
2013-04-05 04:23:00,38.9,33.3,30.09,NNW,343,0.0,0.0,80,0.00,CLR,,0.00,0.0,WeatherDisplay:10.37,2013-04-05 09:23:00,
2013-04-05 04:25:00,38.9,33.3,30.09,NNW,343,0.0,0.0,80,0.00,CLR,,0.00,0.0,WeatherDisplay:10.37,2013-04-05 09:25:00,
2013-04-05 04:28:00,38.8,33.2,30.09,NNW,343,0.0,0.0,80,0.00,CLR,,0.00,0.0,WeatherDisplay:10.37,2013-04-05 09:28:00,
2013-04-05 04:30:00,38.7,33.1,30.09,NNW,343,0.0,0.0,80,0.00,CLR,,0.00,0.0,WeatherDisplay:10.37,2013-04-05 09:30:00,
2013-04-05 04:33:00,38.6,33.0,30.09,NNW,343,0.0,0.0,80,0.00,CLR,,0.00,0.0,WeatherDisplay:10.37,2013-04-05 09:33:00,
2013-04-05 04:34:00,38.7,33.1,30.09,NNW,343,0.0,0.0,80,0.00,CLR,,0.00,0.0,WeatherDisplay:10.37,2013-04-05 09:34:00,
2013-04-05 04:35:00,38.7,33.1,30.09,NNW,343,0.0,0.0,80,0.00,CLR,,0.00,0.0,WeatherDisplay:10.37,2013-04-05 09:35:00,
2013-04-05 04:36:00,38.7,33.1,30.09,NNW,343,0.0,0.0,80,0.00,CLR,,0.00,0.0,WeatherDisplay:10.37,2013-04-05 09:36:00,
2013-04-05 04:38:00,38.8,33.2,30.09,NNW,343,0.0,0.0,80,0.00,CLR,,0.00,0.0,WeatherDisplay:10.37,2013-04-05 09:38:00,
2013-04-05 04:40:00,39.0,33.0,30.09,NNW,343,0.0,0.0,79,0.00,CLR,,0.00,0.0,WeatherDisplay:10.37,2013-04-05 09:40:00,
2013-04-05 04:42:00,39.0,33.0,30.09,NNW,343,0.0,0.0,79,0.00,CLR,,0.00,0.0,WeatherDisplay:10.37,2013-04-05 09:42:00,
2013-04-05 04:43:00,38.8,33.5,30.09,NNW,343,0.0,0.0,81,0.00,CLR,,0.00,0.0,WeatherDisplay:10.37,2013-04-05 09:43:00,
2013-04-05 04:45:00,38.7,33.4,30.09,NNW,343,0.0,0.0,81,0.00,CLR,,0.00,0.0,WeatherDisplay:10.37,2013-04-05 09:45:00,
2013-04-05 04:47:00,38.6,33.3,30.09,NNW,343,0.0,0.0,81,0.00,CLR,,0.00,0.0,WeatherDisplay:10.37,2013-04-05 09:47:00,
2013-04-05 04:49:00,38.5,33.5,30.09,NNW,343,0.0,0.0,82,0.00,CLR,,0.00,0.0,WeatherDisplay:10.37,2013-04-05 09:49:00,
2013-04-05 04:51:00,38.5,33.5,30.09,NNW,343,0.0,0.0,82,0.00,CLR,,0.00,0.0,WeatherDisplay:10.37,2013-04-05 09:51:00,
2013-04-05 04:53:00,38.4,33.4,30.09,NNW,343,0.4,2.3,82,0.00,CLR,,0.00,0.0,WeatherDisplay:10.37,2013-04-05 09:53:00,
2013-04-05 04:54:00,38.4,33.1,30.09,NNW,343,0.5,2.3,81,0.00,CLR,,0.00,0.0,WeatherDisplay:10.37,2013-04-05 09:54:00,
2013-04-05 04:56:00,38.5,33.2,30.09,NNW,343,0.2,1.2,81,0.00,CLR,,0.00,0.0,WeatherDisplay:10.37,2013-04-05 09:56:00,
2013-04-05 04:59:00,38.7,33.4,30.09,NNW,343,0.0,0.0,81,0.00,CLR,,0.00,0.0,WeatherDisplay:10.37,2013-04-05 09:59:00,
2013-04-05 05:00:00,38.7,33.4,30.09,NNW,343,0.0,0.0,81,0.00,CLR,,0.00,0.0,WeatherDisplay:10.37,2013-04-05 10:00:00,
2013-04-05 05:02:00,38.8,33.5,30.09,NNW,343,0.0,0.0,81,0.00,CLR,,0.00,0.0,WeatherDisplay:10.37,2013-04-05 10:02:00,
2013-04-05 05:04:00,38.7,33.4,30.09,NNW,343,0.0,0.0,81,0.00,CLR,,0.00,0.0,WeatherDisplay:10.37,2013-04-05 10:04:00,
2013-04-05 05:05:00,38.7,33.4,30.09,NNW,343,0.0,0.0,81,0.00,CLR,,0.00,0.0,WeatherDisplay:10.37,2013-04-05 10:05:00,
2013-04-05 05:07:00,38.7,33.4,30.09,NNW,343,0.0,0.0,81,0.00,CLR,,0.00,0.0,WeatherDisplay:10.37,2013-04-05 10:07:00,
2013-04-05 05:09:00,38.7,33.4,30.09,NNW,343,0.0,0.0,81,0.00,CLR,,0.00,0.0,WeatherDisplay:10.37,2013-04-05 10:09:00,
2013-04-05 05:10:00,38.7,33.4,30.09,NNW,343,0.0,0.0,81,0.00,CLR,,0.00,0.0,WeatherDisplay:10.37,2013-04-05 10:10:00,
2013-04-05 05:12:00,38.7,33.4,30.09,NNW,343,0.0,0.0,81,0.00,CLR,,0.00,0.0,WeatherDisplay:10.37,2013-04-05 10:12:00,
2013-04-05 05:13:00,38.7,33.4,30.09,NNW,343,0.0,0.0,81,0.00,CLR,,0.00,0.0,WeatherDisplay:10.37,2013-04-05 10:13:00,
2013-04-05 05:14:00,38.7,33.7,30.09,NNW,343,0.0,0.0,82,0.00,CLR,,0.00,0.0,WeatherDisplay:10.37,2013-04-05 10:14:00,
2013-04-05 05:15:00,38.7,33.7,30.09,NNW,343,0.0,0.0,82,0.00,CLR,,0.00,0.0,WeatherDisplay:10.37,2013-04-05 10:15:00,
2013-04-05 05:18:00,38.7,33.4,30.09,NNW,343,0.0,0.0,81,0.00,CLR,,0.00,0.0,WeatherDisplay:10.37,2013-04-05 10:18:00,
2013-04-05 05:20:00,38.5,33.2,30.09,NNW,343,0.0,0.0,81,0.00,CLR,,0.00,0.0,WeatherDisplay:10.37,2013-04-05 10:20:00,
2013-04-05 05:23:00,38.4,33.4,30.09,NNW,343,0.0,0.0,82,0.00,CLR,,0.00,0.0,WeatherDisplay:10.37,2013-04-05 10:23:00,
2013-04-05 05:25:00,38.5,33.2,30.09,NNW,343,0.0,0.0,81,0.00,CLR,,0.00,0.0,WeatherDisplay:10.37,2013-04-05 10:25:00,
2013-04-05 05:27:00,38.5,33.2,30.09,NNW,343,0.0,0.0,81,0.00,CLR,,0.00,0.0,WeatherDisplay:10.37,2013-04-05 10:27:00,
2013-04-05 05:28:00,38.5,33.2,30.09,NNW,343,0.0,0.0,81,0.00,CLR,,0.00,0.0,WeatherDisplay:10.37,2013-04-05 10:28:00,
2013-04-05 05:30:00,38.4,33.4,30.09,NNW,343,0.0,0.0,82,0.00,CLR,,0.00,0.0,WeatherDisplay:10.37,2013-04-05 10:30:00,
2013-04-05 05:32:00,38.4,33.7,30.08,NNW,343,0.0,0.0,83,0.00,CLR,,0.00,0.0,WeatherDisplay:10.37,2013-04-05 10:32:00,
2013-04-05 05:33:00,38.4,33.4,30.08,NNW,343,0.0,0.0,82,0.00,CLR,,0.00,0.0,WeatherDisplay:10.37,2013-04-05 10:33:00,
2013-04-05 05:35:00,38.3,33.3,30.08,NNW,343,0.0,0.0,82,0.00,CLR,,0.00,0.0,WeatherDisplay:10.37,2013-04-05 10:35:00,
2013-04-05 05:37:00,38.2,33.5,30.09,NNW,343,0.0,0.0,83,0.00,CLR,,0.00,0.0,WeatherDisplay:10.37,2013-04-05 10:37:00,
2013-04-05 05:38:00,38.2,33.5,30.09,NNW,343,0.0,0.0,83,0.00,CLR,,0.00,0.0,WeatherDisplay:10.37,2013-04-05 10:38:00,
2013-04-05 05:40:00,38.3,33.6,30.09,NNW,343,0.0,0.0,83,0.00,CLR,,0.00,0.0,WeatherDisplay:10.37,2013-04-05 10:40:00,
2013-04-05 05:43:00,38.1,33.1,30.09,NNW,343,0.0,0.0,82,0.00,CLR,,0.00,0.0,WeatherDisplay:10.37,2013-04-05 10:43:00,
2013-04-05 05:45:00,38.0,33.0,30.09,NNW,343,0.0,0.0,82,0.00,CLR,,0.00,0.0,WeatherDisplay:10.37,2013-04-05 10:45:00,
2013-04-05 05:48:00,37.9,33.2,30.09,NNW,343,0.0,0.0,83,0.00,CLR,,0.00,0.0,WeatherDisplay:10.37,2013-04-05 10:48:00,
2013-04-05 05:49:00,38.0,33.3,30.09,NNW,343,0.0,0.0,83,0.00,CLR,,0.00,0.0,WeatherDisplay:10.37,2013-04-05 10:49:00,
2013-04-05 05:50:00,38.1,33.4,30.09,NNW,343,0.0,0.0,83,0.00,CLR,,0.00,0.0,WeatherDisplay:10.37,2013-04-05 10:50:00,
2013-04-05 05:54:00,38.1,33.1,30.09,NNW,343,0.0,0.0,82,0.00,CLR,,0.00,0.0,WeatherDisplay:10.37,2013-04-05 10:54:00,
2013-04-05 05:55:00,38.1,33.1,30.09,NNW,343,0.0,0.0,82,0.00,CLR,,0.00,0.0,WeatherDisplay:10.37,2013-04-05 10:55:00,
2013-04-05 05:56:00,38.1,33.1,30.09,NNW,343,0.0,0.0,82,0.00,CLR,,0.00,0.0,WeatherDisplay:10.37,2013-04-05 10:56:00,
2013-04-05 05:59:00,38.1,33.4,30.09,NNW,343,0.0,0.0,83,0.00,CLR,,0.00,0.0,WeatherDisplay:10.37,2013-04-05 10:59:00,
2013-04-05 06:00:00,38.1,33.4,30.09,NNW,343,0.0,0.0,83,0.00,CLR,,0.00,0.0,WeatherDisplay:10.37,2013-04-05 11:00:00,
2013-04-05 06:01:00,38.1,33.7,30.09,NNW,343,0.0,0.0,84,0.00,CLR,,0.00,0.0,WeatherDisplay:10.37,2013-04-05 11:01:00,
2013-04-05 06:05:00,38.0,33.3,30.09,NNW,343,0.0,0.0,83,0.00,CLR,,0.00,0.0,WeatherDisplay:10.37,2013-04-05 11:05:00,
2013-04-05 06:06:00,38.0,33.6,30.09,NNW,343,0.0,0.0,84,0.00,CLR,,0.00,0.0,WeatherDisplay:10.37,2013-04-05 11:06:00,
2013-04-05 06:10:00,38.0,33.3,30.09,NNW,343,0.0,0.0,83,0.00,CLR,,0.00,0.0,WeatherDisplay:10.37,2013-04-05 11:10:00,
2013-04-05 06:11:00,37.9,33.2,30.09,NNW,343,0.0,0.0,83,0.00,CLR,,0.00,0.0,WeatherDisplay:10.37,2013-04-05 11:11:00,
2013-04-05 06:12:00,37.8,33.4,30.09,NNW,343,0.0,0.0,84,0.00,CLR,,0.00,0.0,WeatherDisplay:10.37,2013-04-05 11:12:00,
2013-04-05 06:15:00,37.7,33.6,30.09,NNW,343,0.0,0.0,85,0.00,CLR,,0.00,0.0,WeatherDisplay:10.37,2013-04-05 11:15:00,
2013-04-05 06:16:00,37.6,33.5,30.09,NNW,343,0.0,0.0,85,0.00,CLR,,0.00,0.0,WeatherDisplay:10.37,2013-04-05 11:16:00,
2013-04-05 06:17:00,37.6,33.5,30.09,NNW,343,0.0,0.0,85,0.00,CLR,,0.00,0.0,WeatherDisplay:10.37,2013-04-05 11:17:00,
2013-04-05 06:20:00,37.5,33.4,30.10,NNW,343,0.0,0.0,85,0.00,CLR,,0.00,0.0,WeatherDisplay:10.37,2013-04-05 11:20:00,
2013-04-05 06:22:00,37.4,33.3,30.10,NNW,343,0.0,0.0,85,0.00,CLR,,0.00,0.0,WeatherDisplay:10.37,2013-04-05 11:22:00,
2013-04-05 06:25:00,37.4,33.3,30.10,NNW,343,0.0,0.0,85,0.00,CLR,,0.00,0.0,WeatherDisplay:10.37,2013-04-05 11:25:00,
2013-04-05 06:27:00,37.4,33.3,30.10,NNW,343,0.0,0.0,85,0.00,CLR,,0.00,0.0,WeatherDisplay:10.37,2013-04-05 11:27:00,
2013-04-05 06:28:00,37.4,33.6,30.10,NNW,343,0.0,0.0,86,0.00,CLR,,0.00,0.0,WeatherDisplay:10.37,2013-04-05 11:28:00,
2013-04-05 06:30:00,37.4,33.6,30.10,NNW,343,0.0,0.0,86,0.00,CLR,,0.00,0.0,WeatherDisplay:10.37,2013-04-05 11:30:00,
2013-04-05 06:32:00,37.3,33.8,30.10,NNW,343,0.0,0.0,87,0.00,CLR,,0.00,0.0,WeatherDisplay:10.37,2013-04-05 11:32:00,
2013-04-05 06:33:00,37.4,33.9,30.10,NNW,343,0.0,0.0,87,0.00,CLR,,0.00,0.0,WeatherDisplay:10.37,2013-04-05 11:33:00,
2013-04-05 06:35:00,37.3,33.5,30.10,NNW,343,0.0,0.0,86,0.00,CLR,,0.00,0.0,WeatherDisplay:10.37,2013-04-05 11:35:00,
2013-04-05 06:37:00,37.3,33.2,30.10,NNW,343,0.0,0.0,85,0.00,CLR,,0.00,0.0,WeatherDisplay:10.37,2013-04-05 11:37:00,
2013-04-05 06:38:00,37.3,33.5,30.10,NNW,343,0.0,0.0,86,0.00,CLR,,0.00,0.0,WeatherDisplay:10.37,2013-04-05 11:38:00,
2013-04-05 06:40:00,37.3,33.5,30.10,NNW,343,0.0,0.0,86,0.00,CLR,,0.00,0.0,WeatherDisplay:10.37,2013-04-05 11:40:00,
2013-04-05 06:42:00,37.3,33.2,30.10,NNW,343,0.0,0.0,85,0.00,CLR,,0.00,0.0,WeatherDisplay:10.37,2013-04-05 11:42:00,
2013-04-05 06:43:00,37.4,33.3,30.10,NNW,343,0.0,0.0,85,0.00,CLR,,0.00,0.0,WeatherDisplay:10.37,2013-04-05 11:43:00,
2013-04-05 06:45:00,37.5,33.4,30.10,NNW,343,0.0,0.0,85,0.00,CLR,,0.00,0.0,WeatherDisplay:10.37,2013-04-05 11:45:00,
2013-04-05 06:47:00,37.7,33.6,30.10,NNW,343,0.0,0.0,85,0.00,CLR,,0.00,0.0,WeatherDisplay:10.37,2013-04-05 11:47:00,
2013-04-05 06:48:00,37.7,33.6,30.10,NNW,343,0.0,0.0,85,0.00,CLR,,0.00,0.0,WeatherDisplay:10.37,2013-04-05 11:48:00,
2013-04-05 06:51:00,37.7,33.3,30.10,NNW,343,0.0,0.0,84,0.00,CLR,,0.00,0.0,WeatherDisplay:10.37,2013-04-05 11:51:00,
2013-04-05 06:52:00,37.8,33.4,30.10,NNW,343,0.0,0.0,84,0.00,CLR,,0.00,0.0,WeatherDisplay:10.37,2013-04-05 11:52:00,
2013-04-05 06:53:00,37.8,33.4,30.10,NNW,343,0.0,0.0,84,0.00,CLR,,0.00,0.0,WeatherDisplay:10.37,2013-04-05 11:53:00,
2013-04-05 06:54:00,37.8,33.4,30.10,NNW,343,0.0,0.0,84,0.00,CLR,,0.00,0.0,WeatherDisplay:10.37,2013-04-05 11:54:00,
2013-04-05 06:56:00,37.8,33.4,30.10,NNW,343,0.0,0.0,84,0.00,CLR,,0.00,0.0,WeatherDisplay:10.37,2013-04-05 11:56:00,
2013-04-05 06:57:00,37.7,33.3,30.10,NNW,343,0.0,0.0,84,0.00,CLR,,0.00,0.0,WeatherDisplay:10.37,2013-04-05 11:57:00,
2013-04-05 06:59:00,37.6,33.5,30.10,NNW,343,0.0,0.0,85,0.00,CLR,,0.00,0.0,WeatherDisplay:10.37,2013-04-05 11:59:00,
2013-04-05 07:00:00,37.5,33.4,30.10,NNW,343,0.0,0.0,85,0.00,CLR,,0.00,5.0,WeatherDisplay:10.37,2013-04-05 12:00:00,
2013-04-05 07:02:00,37.3,33.2,30.09,NNW,343,0.0,0.0,85,0.00,CLR,,0.00,5.0,WeatherDisplay:10.37,2013-04-05 12:02:00,
2013-04-05 07:04:00,37.2,33.1,30.09,NNW,343,0.0,0.0,85,0.00,CLR,,0.00,5.0,WeatherDisplay:10.37,2013-04-05 12:04:00,
2013-04-05 07:05:00,37.2,33.1,30.09,NNW,343,0.0,0.0,85,0.00,CLR,,0.00,7.0,WeatherDisplay:10.37,2013-04-05 12:05:00,
2013-04-05 07:07:00,37.1,33.0,30.09,NNW,343,0.0,0.0,85,0.00,CLR,,0.00,7.0,WeatherDisplay:10.37,2013-04-05 12:07:00,
2013-04-05 07:08:00,37.1,33.0,30.09,NNW,343,0.0,0.0,85,0.00,CLR,,0.00,9.0,WeatherDisplay:10.37,2013-04-05 12:08:00,
2013-04-05 07:09:00,37.1,33.0,30.09,NNW,343,0.0,0.0,85,0.00,CLR,,0.00,9.0,WeatherDisplay:10.37,2013-04-05 12:09:00,
2013-04-05 07:10:00,37.1,33.0,30.10,NNW,343,0.0,0.0,85,0.00,CLR,,0.00,11.0,WeatherDisplay:10.37,2013-04-05 12:10:00,
2013-04-05 07:12:00,37.2,33.1,30.10,NNW,343,0.0,0.0,85,0.00,CLR,,0.00,11.0,WeatherDisplay:10.37,2013-04-05 12:12:00,
2013-04-05 07:14:00,37.3,33.2,30.10,NNW,343,0.0,0.0,85,0.00,CLR,,0.00,12.0,WeatherDisplay:10.37,2013-04-05 12:14:00,
2013-04-05 07:15:00,37.3,33.2,30.10,NNW,343,0.0,0.0,85,0.00,CLR,,0.00,12.0,WeatherDisplay:10.37,2013-04-05 12:15:00,
2013-04-05 07:17:00,37.3,33.2,30.10,NNW,343,0.0,0.0,85,0.00,CLR,,0.00,14.0,WeatherDisplay:10.37,2013-04-05 12:17:00,
2013-04-05 07:20:00,37.4,33.6,30.10,NNW,343,0.0,0.0,86,0.00,CLR,,0.00,16.0,WeatherDisplay:10.37,2013-04-05 12:20:00,
2013-04-05 07:22:00,37.3,33.5,30.10,NNW,343,0.0,0.0,86,0.00,CLR,,0.00,16.0,WeatherDisplay:10.37,2013-04-05 12:22:00,
2013-04-05 07:25:00,37.2,33.4,30.10,NNW,343,0.0,0.0,86,0.00,CLR,,0.00,19.0,WeatherDisplay:10.37,2013-04-05 12:25:00,
2013-04-05 07:27:00,37.1,33.3,30.10,NNW,343,0.0,0.0,86,0.00,CLR,,0.00,19.0,WeatherDisplay:10.37,2013-04-05 12:27:00,
2013-04-05 07:30:00,36.9,33.1,30.10,NNW,343,0.0,0.0,86,0.00,CLR,,0.00,21.0,WeatherDisplay:10.37,2013-04-05 12:30:00,
2013-04-05 07:31:00,37.0,33.2,30.10,NNW,343,0.0,0.0,86,0.00,CLR,,0.00,21.0,WeatherDisplay:10.37,2013-04-05 12:31:00,
2013-04-05 07:33:00,36.9,33.1,30.10,NNW,343,0.0,0.0,86,0.00,CLR,,0.00,23.0,WeatherDisplay:10.37,2013-04-05 12:33:00,
2013-04-05 07:36:00,37.0,33.2,30.11,NNW,343,0.0,0.0,86,0.00,CLR,,0.00,25.0,WeatherDisplay:10.37,2013-04-05 12:36:00,
2013-04-05 07:38:00,37.1,33.6,30.11,NNW,343,0.5,1.2,87,0.00,CLR,,0.00,26.0,WeatherDisplay:10.37,2013-04-05 12:38:00,
2013-04-05 07:41:00,37.3,33.5,30.11,NNW,343,1.0,2.3,86,0.00,CLR,,0.00,28.0,WeatherDisplay:10.37,2013-04-05 12:41:00,
2013-04-05 07:42:00,37.4,33.6,30.11,NNW,343,0.8,2.3,86,0.00,CLR,,0.00,28.0,WeatherDisplay:10.37,2013-04-05 12:42:00,
2013-04-05 07:43:00,37.5,33.7,30.11,NNW,343,1.1,2.3,86,0.00,CLR,,0.00,30.0,WeatherDisplay:10.37,2013-04-05 12:43:00,
2013-04-05 07:47:00,37.6,33.8,30.12,NNW,343,0.3,1.2,86,0.00,CLR,,0.00,35.0,WeatherDisplay:10.37,2013-04-05 12:47:00,
2013-04-05 07:49:00,37.7,33.9,30.12,NNW,343,0.0,0.0,86,0.00,CLR,,0.00,33.0,WeatherDisplay:10.37,2013-04-05 12:49:00,
2013-04-05 07:52:00,38.0,33.9,30.12,NNW,343,0.0,0.0,85,0.00,CLR,,0.00,33.0,WeatherDisplay:10.37,2013-04-05 12:52:00,
2013-04-05 07:54:00,38.4,34.3,30.12,NNW,343,0.0,0.0,85,0.00,CLR,,0.00,42.0,WeatherDisplay:10.37,2013-04-05 12:54:00,
2013-04-05 07:57:00,38.9,34.5,30.12,NNW,343,0.0,0.0,84,0.00,CLR,,0.00,51.0,WeatherDisplay:10.37,2013-04-05 12:57:00,
2013-04-05 08:00:00,39.5,35.1,30.12,NNW,343,0.0,0.0,84,0.00,OVC,,0.00,56.0,WeatherDisplay:10.37,2013-04-05 13:00:00,
2013-04-05 08:02:00,40.0,35.3,30.12,NNW,343,0.0,0.0,83,0.00,OVC,,0.00,62.0,WeatherDisplay:10.37,2013-04-05 13:02:00,
2013-04-05 08:03:00,40.1,35.4,30.12,NNW,343,0.0,0.0,83,0.00,OVC,,0.00,62.0,WeatherDisplay:10.37,2013-04-05 13:03:00,
2013-04-05 08:05:00,40.5,35.7,30.13,NNW,343,0.0,0.0,83,0.00,OVC,,0.00,54.0,WeatherDisplay:10.37,2013-04-05 13:05:00,
2013-04-05 08:07:00,40.8,36.0,30.13,NNW,343,0.0,0.0,83,0.00,OVC,,0.00,70.0,WeatherDisplay:10.37,2013-04-05 13:07:00,
2013-04-05 08:08:00,40.8,36.0,30.13,NNW,343,0.0,0.0,83,0.00,OVC,,0.00,70.0,WeatherDisplay:10.37,2013-04-05 13:08:00,
2013-04-05 08:10:00,41.0,36.2,30.13,NNW,343,0.0,0.0,83,0.00,OVC,,0.00,58.0,WeatherDisplay:10.37,2013-04-05 13:10:00,
2013-04-05 08:12:00,41.3,36.2,30.13,NNW,343,0.0,0.0,82,0.00,OVC,,0.00,58.0,WeatherDisplay:10.37,2013-04-05 13:12:00,
2013-04-05 08:13:00,41.3,36.2,30.13,NNW,343,0.0,0.0,82,0.00,OVC,,0.00,58.0,WeatherDisplay:10.37,2013-04-05 13:13:00,
2013-04-05 08:16:00,41.8,36.4,30.13,NNW,343,0.0,0.0,81,0.00,OVC,,0.00,88.0,WeatherDisplay:10.37,2013-04-05 13:16:00,
2013-04-05 08:18:00,42.3,36.6,30.14,NNW,343,0.0,0.0,80,0.00,OVC,,0.00,93.0,WeatherDisplay:10.37,2013-04-05 13:18:00,
2013-04-05 08:19:00,42.4,36.7,30.14,NNW,343,0.0,0.0,80,0.00,OVC,,0.00,113.0,WeatherDisplay:10.37,2013-04-05 13:19:00,
2013-04-05 08:21:00,42.7,37.0,30.14,NNW,343,1.5,2.3,80,0.00,OVC,,0.00,123.0,WeatherDisplay:10.37,2013-04-05 13:21:00,
2013-04-05 08:24:00,43.8,37.4,30.14,NNW,343,1.4,2.3,78,0.00,OVC,,0.00,125.0,WeatherDisplay:10.37,2013-04-05 13:24:00,
2013-04-05 08:25:00,44.0,37.6,30.14,NNW,343,1.0,2.3,78,0.00,OVC,,0.00,121.0,WeatherDisplay:10.37,2013-04-05 13:25:00,
2013-04-05 08:27:00,44.3,37.2,30.14,NNW,343,0.8,2.3,76,0.00,OVC,,0.00,102.0,WeatherDisplay:10.37,2013-04-05 13:27:00,
2013-04-05 08:29:00,44.7,37.2,30.14,NNW,343,1.0,2.0,75,0.00,OVC,,0.00,109.0,WeatherDisplay:10.37,2013-04-05 13:29:00,
2013-04-05 08:30:00,44.9,37.5,30.14,NNW,343,1.4,2.3,75,0.00,OVC,,0.00,109.0,WeatherDisplay:10.37,2013-04-05 13:30:00,
2013-04-05 08:32:00,45.3,37.8,30.14,NNW,343,1.4,2.3,75,0.00,OVC,,0.00,135.0,WeatherDisplay:10.37,2013-04-05 13:32:00,
2013-04-05 08:35:00,45.9,37.7,30.14,NNW,343,0.2,1.2,73,0.00,OVC,,0.00,137.0,WeatherDisplay:10.37,2013-04-05 13:35:00,
2013-04-05 08:40:00,46.7,38.1,30.14,NNW,343,1.0,2.0,72,0.00,OVC,,0.00,151.0,WeatherDisplay:10.37,2013-04-05 13:40:00,
2013-04-05 08:45:00,47.6,37.6,30.14,NNW,344,1.2,2.3,68,0.00,OVC,,0.00,220.0,WeatherDisplay:10.37,2013-04-05 13:45:00,
2013-04-05 08:46:00,47.8,37.4,30.14,SSW,200,1.7,3.5,67,0.00,OVC,,0.00,248.0,WeatherDisplay:10.37,2013-04-05 13:46:00,
2013-04-05 08:50:00,49.1,37.8,30.14,NNE,28,2.0,3.5,65,0.00,OVC,,0.00,288.0,WeatherDisplay:10.37,2013-04-05 13:50:00,
2013-04-05 08:51:00,49.1,37.0,30.14,ESE,109,1.9,3.5,63,0.00,OVC,,0.00,292.0,WeatherDisplay:10.37,2013-04-05 13:51:00,
2013-04-05 08:55:00,49.4,36.5,30.14,East,95,2.5,3.5,61,0.00,OVC,,0.00,308.0,WeatherDisplay:10.37,2013-04-05 13:55:00,
2013-04-05 08:56:00,49.4,36.5,30.14,East,95,2.1,3.5,61,0.00,OVC,,0.00,311.0,WeatherDisplay:10.37,2013-04-05 13:56:00,
2013-04-05 09:00:00,49.7,36.8,30.14,ENE,67,2.3,4.6,61,0.00,OVC,,0.00,134.0,WeatherDisplay:10.37,2013-04-05 14:00:00,
2013-04-05 09:01:00,49.7,36.8,30.14,East,93,2.0,3.5,61,0.00,OVC,,0.00,134.0,WeatherDisplay:10.37,2013-04-05 14:01:00,
2013-04-05 09:02:00,49.8,36.5,30.14,SSE,151,1.1,3.5,60,0.00,OVC,,0.00,313.0,WeatherDisplay:10.37,2013-04-05 14:02:00,
2013-04-05 09:03:00,50.0,37.1,30.14,ENE,69,0.5,2.3,61,0.00,OVC,,0.00,320.0,WeatherDisplay:10.37,2013-04-05 14:03:00,
2013-04-05 09:06:00,50.3,36.9,30.14,SE,142,3.2,4.6,60,0.00,OVC,,0.00,338.0,WeatherDisplay:10.37,2013-04-05 14:06:00,
2013-04-05 09:07:00,50.3,36.9,30.14,East,80,3.1,5.0,60,0.00,OVC,,0.00,346.0,WeatherDisplay:10.37,2013-04-05 14:07:00,
2013-04-05 09:08:00,50.5,37.1,30.14,East,86,2.8,5.8,60,0.00,OVC,,0.00,352.0,WeatherDisplay:10.37,2013-04-05 14:08:00,
2013-04-05 09:12:00,51.2,37.4,30.14,ENE,78,1.4,2.3,59,0.00,OVC,,0.00,334.0,WeatherDisplay:10.37,2013-04-05 14:12:00,
2013-04-05 09:13:00,51.3,37.0,30.14,ENE,78,0.3,2.3,58,0.00,OVC,,0.00,325.0,WeatherDisplay:10.37,2013-04-05 14:13:00,
2013-04-05 09:17:00,52.1,37.8,30.14,ESE,118,1.4,3.5,58,0.00,OVC,,0.00,343.0,WeatherDisplay:10.37,2013-04-05 14:17:00,
2013-04-05 09:18:00,52.1,37.3,30.13,ESE,119,1.8,3.5,57,0.00,OVC,,0.00,341.0,WeatherDisplay:10.37,2013-04-05 14:18:00,
2013-04-05 09:19:00,52.3,37.5,30.13,East,88,1.4,3.5,57,0.00,OVC,,0.00,352.0,WeatherDisplay:10.37,2013-04-05 14:19:00,
2013-04-05 09:22:00,52.3,37.5,30.13,ESE,109,1.8,3.5,57,0.00,OVC,,0.00,355.0,WeatherDisplay:10.37,2013-04-05 14:22:00,
2013-04-05 09:23:00,52.2,37.4,30.13,ESE,108,1.1,2.3,57,0.00,OVC,,0.00,357.0,WeatherDisplay:10.37,2013-04-05 14:23:00,
2013-04-05 09:25:00,52.3,37.5,30.13,SE,126,1.1,2.3,57,0.00,OVC,,0.00,366.0,WeatherDisplay:10.37,2013-04-05 14:25:00,
2013-04-05 09:27:00,52.3,37.1,30.13,ENE,77,2.5,3.5,56,0.00,OVC,,0.00,415.0,WeatherDisplay:10.37,2013-04-05 14:27:00,
2013-04-05 09:28:00,52.3,37.1,30.13,ESE,104,2.4,3.5,56,0.00,OVC,,0.00,415.0,WeatherDisplay:10.37,2013-04-05 14:28:00,
2013-04-05 09:29:00,52.0,36.3,30.13,ESE,122,2.0,5.8,55,0.00,OVC,,0.00,424.0,WeatherDisplay:10.37,2013-04-05 14:29:00,
2013-04-05 09:30:00,52.1,36.9,30.13,SSE,153,1.7,2.3,56,0.00,OVC,,0.00,408.0,WeatherDisplay:10.37,2013-04-05 14:30:00,
2013-04-05 09:35:00,52.4,37.2,30.13,East,87,3.2,5.8,56,0.00,OVC,,0.00,299.0,WeatherDisplay:10.37,2013-04-05 14:35:00,
2013-04-05 09:36:00,52.4,37.2,30.13,ESE,108,1.7,4.6,56,0.00,OVC,,0.00,341.0,WeatherDisplay:10.37,2013-04-05 14:36:00,
2013-04-05 09:40:00,53.1,37.3,30.13,East,96,3.2,4.6,55,0.00,OVC,,0.00,461.0,WeatherDisplay:10.37,2013-04-05 14:40:00,
2013-04-05 09:42:00,53.1,37.3,30.13,ESE,111,2.7,4.6,55,0.00,OVC,,0.00,466.0,WeatherDisplay:10.37,2013-04-05 14:42:00,
2013-04-05 09:45:00,53.3,38.4,30.13,SSE,161,2.0,3.5,57,0.00,OVC,,0.00,432.0,WeatherDisplay:10.37,2013-04-05 14:45:00,
2013-04-05 09:46:00,53.5,38.6,30.13,ENE,78,1.4,2.3,57,0.00,OVC,,0.00,432.0,WeatherDisplay:10.37,2013-04-05 14:46:00,
2013-04-05 09:47:00,53.8,38.5,30.13,NNE,25,1.6,2.3,56,0.00,OVC,,0.00,438.0,WeatherDisplay:10.37,2013-04-05 14:47:00,
2013-04-05 09:50:00,54.7,38.8,30.13,ESE,115,1.2,2.0,55,0.00,OVC,,0.00,471.0,WeatherDisplay:10.37,2013-04-05 14:50:00,
2013-04-05 09:52:00,55.0,38.2,30.13,ENE,65,2.2,3.5,53,0.00,OVC,,0.00,72.0,WeatherDisplay:10.37,2013-04-05 14:52:00,
2013-04-05 09:53:00,55.0,38.2,30.13,ENE,65,0.8,3.5,53,0.00,OVC,,0.00,70.0,WeatherDisplay:10.37,2013-04-05 14:53:00,
2013-04-05 09:55:00,54.8,37.5,30.13,SE,126,2.1,3.5,52,0.00,OVC,,0.00,77.0,WeatherDisplay:10.37,2013-04-05 14:55:00,
2013-04-05 09:56:00,54.6,37.3,30.13,South,170,2.2,3.5,52,0.00,OVC,,0.00,77.0,WeatherDisplay:10.37,2013-04-05 14:56:00,
2013-04-05 09:57:00,54.4,37.1,30.13,SSE,165,2.6,3.5,52,0.00,OVC,,0.00,118.0,WeatherDisplay:10.37,2013-04-05 14:57:00,
2013-04-05 09:58:00,54.5,37.7,30.13,SSE,153,3.0,3.5,53,0.00,OVC,,0.00,118.0,WeatherDisplay:10.37,2013-04-05 14:58:00,
2013-04-05 10:01:00,54.3,37.0,30.13,South,190,2.2,5.0,52,0.00,OVC,,0.00,526.0,WeatherDisplay:10.37,2013-04-05 15:01:00,
2013-04-05 10:02:00,54.5,38.2,30.13,ESE,117,1.2,4.6,54,0.00,OVC,,0.00,531.0,WeatherDisplay:10.37,2013-04-05 15:02:00,
2013-04-05 10:04:00,54.2,37.4,30.13,SE,133,1.8,3.5,53,0.00,OVC,,0.00,538.0,WeatherDisplay:10.37,2013-04-05 15:04:00,
2013-04-05 10:07:00,54.2,38.4,30.13,ENE,59,2.1,3.5,55,0.00,OVC,,0.00,545.0,WeatherDisplay:10.37,2013-04-05 15:07:00,
2013-04-05 10:09:00,55.3,38.4,30.13,South,175,2.7,4.0,53,0.00,OVC,,0.00,561.0,WeatherDisplay:10.37,2013-04-05 15:09:00,
2013-04-05 10:12:00,55.8,37.9,30.13,South,185,0.9,4.0,51,0.00,OVC,,0.00,573.0,WeatherDisplay:10.37,2013-04-05 15:12:00,
2013-04-05 10:14:00,55.7,37.8,30.13,SE,146,1.0,4.6,51,0.00,OVC,,0.00,584.0,WeatherDisplay:10.37,2013-04-05 15:14:00,
2013-04-05 10:17:00,56.4,39.0,30.13,SSE,154,1.9,3.5,52,0.00,OVC,,0.00,591.0,WeatherDisplay:10.37,2013-04-05 15:17:00,
2013-04-05 10:18:00,56.6,38.2,30.13,SSE,153,1.6,3.5,50,0.00,OVC,,0.00,591.0,WeatherDisplay:10.37,2013-04-05 15:18:00,
2013-04-05 10:20:00,56.6,38.2,30.13,South,188,1.9,5.0,50,0.00,OVC,,0.00,592.0,WeatherDisplay:10.37,2013-04-05 15:20:00,
2013-04-05 10:22:00,57.6,38.6,30.13,South,169,1.4,3.5,49,0.00,OVC,,0.00,598.0,WeatherDisplay:10.37,2013-04-05 15:22:00,
2013-04-05 10:23:00,57.3,37.2,30.13,South,169,0.8,2.3,47,0.00,OVC,,0.00,601.0,WeatherDisplay:10.37,2013-04-05 15:23:00,
2013-04-05 10:24:00,57.0,38.5,30.13,South,169,1.0,2.3,50,0.00,OVC,,0.00,589.0,WeatherDisplay:10.37,2013-04-05 15:24:00,
2013-04-05 10:25:00,57.2,38.2,30.13,South,169,1.1,2.3,49,0.00,OVC,,0.00,587.0,WeatherDisplay:10.37,2013-04-05 15:25:00,
2013-04-05 10:27:00,57.3,38.3,30.13,SE,130,1.0,3.5,49,0.00,OVC,,0.00,548.0,WeatherDisplay:10.37,2013-04-05 15:27:00,
2013-04-05 10:29:00,57.0,37.5,30.13,SSE,161,1.3,3.0,48,0.00,OVC,,0.00,570.0,WeatherDisplay:10.37,2013-04-05 15:29:00,
2013-04-05 10:30:00,56.9,37.4,30.13,SE,132,2.4,3.5,48,0.00,OVC,,0.00,596.0,WeatherDisplay:10.37,2013-04-05 15:30:00,
2013-04-05 10:33:00,56.7,37.2,30.13,SSW,202,3.7,6.9,48,0.00,OVC,,0.00,612.0,WeatherDisplay:10.37,2013-04-05 15:33:00,
2013-04-05 10:34:00,56.5,37.0,30.13,SSW,212,3.6,5.0,48,0.00,OVC,,0.00,613.0,WeatherDisplay:10.37,2013-04-05 15:34:00,
2013-04-05 10:35:00,56.6,38.2,30.12,ESE,121,2.9,4.6,50,0.00,OVC,,0.00,621.0,WeatherDisplay:10.37,2013-04-05 15:35:00,
2013-04-05 10:38:00,56.8,37.3,30.12,SSE,162,2.7,3.5,48,0.00,OVC,,0.00,624.0,WeatherDisplay:10.37,2013-04-05 15:38:00,
2013-04-05 10:39:00,56.8,37.8,30.12,South,182,2.0,3.5,49,0.00,OVC,,0.00,628.0,WeatherDisplay:10.37,2013-04-05 15:39:00,
2013-04-05 10:40:00,56.9,37.9,30.12,South,182,1.0,2.3,49,0.00,OVC,,0.00,631.0,WeatherDisplay:10.37,2013-04-05 15:40:00,
2013-04-05 10:43:00,57.3,38.3,30.12,ESE,109,1.0,2.3,49,0.00,OVC,,0.00,638.0,WeatherDisplay:10.37,2013-04-05 15:43:00,
2013-04-05 10:44:00,57.5,37.4,30.12,SE,126,1.8,3.5,47,0.00,OVC,,0.00,645.0,WeatherDisplay:10.37,2013-04-05 15:44:00,
2013-04-05 10:45:00,57.5,38.5,30.12,SSE,155,1.6,3.5,49,0.00,OVC,,0.00,647.0,WeatherDisplay:10.37,2013-04-05 15:45:00,
2013-04-05 10:48:00,57.5,37.9,30.12,ENE,76,2.5,3.5,48,0.00,OVC,,0.00,652.0,WeatherDisplay:10.37,2013-04-05 15:48:00,
2013-04-05 10:49:00,57.6,38.0,30.12,SE,130,0.9,3.5,48,0.00,OVC,,0.00,654.0,WeatherDisplay:10.37,2013-04-05 15:49:00,
2013-04-05 10:50:00,58.0,38.9,30.12,SSE,150,2.6,6.0,49,0.00,OVC,,0.00,656.0,WeatherDisplay:10.37,2013-04-05 15:50:00,
2013-04-05 10:53:00,58.2,38.1,30.12,SSE,148,2.3,3.5,47,0.00,OVC,,0.00,666.0,WeatherDisplay:10.37,2013-04-05 15:53:00,
2013-04-05 10:55:00,58.0,37.9,30.12,ESE,114,2.4,3.5,47,0.00,OVC,,0.00,666.0,WeatherDisplay:10.37,2013-04-05 15:55:00,
2013-04-05 10:56:00,57.8,37.7,30.12,SSW,213,2.5,3.5,47,0.00,OVC,,0.00,668.0,WeatherDisplay:10.37,2013-04-05 15:56:00,
2013-04-05 10:58:00,58.3,39.2,30.12,SSE,167,2.6,6.0,49,0.00,OVC,,0.00,671.0,WeatherDisplay:10.37,2013-04-05 15:58:00,
2013-04-05 11:00:00,58.5,38.3,30.12,South,173,2.5,3.5,47,0.00,OVC,,0.00,677.0,WeatherDisplay:10.37,2013-04-05 16:00:00,
2013-04-05 11:01:00,58.4,38.2,30.12,South,175,2.4,3.5,47,0.00,OVC,,0.00,677.0,WeatherDisplay:10.37,2013-04-05 16:01:00,
2013-04-05 11:03:00,58.9,39.2,30.12,ENE,76,1.7,3.5,48,0.00,OVC,,0.00,691.0,WeatherDisplay:10.37,2013-04-05 16:03:00,
2013-04-05 11:05:00,59.1,38.9,30.12,ESE,112,1.9,3.5,47,0.00,OVC,,0.00,693.0,WeatherDisplay:10.37,2013-04-05 16:05:00,
2013-04-05 11:06:00,59.3,39.6,30.12,SE,144,0.7,3.5,48,0.00,OVC,,0.00,698.0,WeatherDisplay:10.37,2013-04-05 16:06:00,
2013-04-05 11:08:00,59.7,39.4,30.12,South,179,4.2,5.0,47,0.00,OVC,,0.00,696.0,WeatherDisplay:10.37,2013-04-05 16:08:00,
2013-04-05 11:10:00,59.8,39.0,30.12,South,172,1.9,3.5,46,0.00,OVC,,0.00,701.0,WeatherDisplay:10.37,2013-04-05 16:10:00,
2013-04-05 11:13:00,59.7,38.3,30.12,South,188,2.4,4.6,45,0.00,OVC,,0.00,710.0,WeatherDisplay:10.37,2013-04-05 16:13:00,
2013-04-05 11:14:00,59.7,38.9,30.12,South,183,3.9,6.9,46,0.00,OVC,,0.00,710.0,WeatherDisplay:10.37,2013-04-05 16:14:00,
2013-04-05 11:16:00,59.8,39.0,30.11,South,176,4.9,8.1,46,0.00,OVC,,0.00,712.0,WeatherDisplay:10.37,2013-04-05 16:16:00,
2013-04-05 11:18:00,60.2,39.3,30.11,SW,234,2.5,3.5,46,0.00,OVC,,0.00,717.0,WeatherDisplay:10.37,2013-04-05 16:18:00,
2013-04-05 11:19:00,60.2,39.3,30.11,SW,235,3.1,4.0,46,0.00,OVC,,0.00,719.0,WeatherDisplay:10.37,2013-04-05 16:19:00,
2013-04-05 11:21:00,59.8,39.0,30.11,West,260,2.1,4.6,46,0.00,OVC,,0.00,731.0,WeatherDisplay:10.37,2013-04-05 16:21:00,
2013-04-05 11:23:00,60.2,39.9,30.11,SE,136,2.0,3.5,47,0.00,OVC,,0.00,728.0,WeatherDisplay:10.37,2013-04-05 16:23:00,
2013-04-05 11:24:00,60.4,40.6,30.11,SE,131,2.6,3.5,48,0.00,OVC,,0.00,740.0,WeatherDisplay:10.37,2013-04-05 16:24:00,
2013-04-05 11:27:00,60.5,39.0,30.11,South,169,1.8,3.5,45,0.00,OVC,,0.00,729.0,WeatherDisplay:10.37,2013-04-05 16:27:00,
2013-04-05 11:28:00,60.5,39.6,30.11,SW,227,1.8,3.5,46,0.00,OVC,,0.00,728.0,WeatherDisplay:10.37,2013-04-05 16:28:00,
2013-04-05 11:29:00,60.5,39.0,30.11,ESE,122,1.4,3.5,45,0.00,OVC,,0.00,738.0,WeatherDisplay:10.37,2013-04-05 16:29:00,
2013-04-05 11:30:00,60.8,40.4,30.11,East,81,1.1,3.5,47,0.00,OVC,,0.00,714.0,WeatherDisplay:10.37,2013-04-05 16:30:00,
2013-04-05 11:32:00,61.3,40.3,30.11,East,81,2.2,3.5,46,0.00,OVC,,0.00,756.0,WeatherDisplay:10.37,2013-04-05 16:32:00,
2013-04-05 11:33:00,61.2,39.7,30.11,SSE,155,1.4,4.6,45,0.00,OVC,,0.00,749.0,WeatherDisplay:10.37,2013-04-05 16:33:00,
2013-04-05 11:34:00,61.3,40.3,30.11,SSE,168,3.3,6.0,46,0.00,OVC,,0.00,749.0,WeatherDisplay:10.37,2013-04-05 16:34:00,
2013-04-05 11:37:00,62.6,40.4,30.11,South,186,3.1,5.8,44,0.00,OVC,,0.00,765.0,WeatherDisplay:10.37,2013-04-05 16:37:00,
2013-04-05 11:39:00,62.4,39.6,30.11,South,183,3.7,5.8,43,0.00,OVC,,0.00,759.0,WeatherDisplay:10.37,2013-04-05 16:39:00,
2013-04-05 11:42:00,62.3,40.1,30.10,South,179,3.8,6.9,44,0.00,OVC,,0.00,770.0,WeatherDisplay:10.37,2013-04-05 16:42:00,
2013-04-05 11:44:00,62.7,40.5,30.11,SW,231,3.5,4.6,44,0.00,OVC,,0.00,775.0,WeatherDisplay:10.37,2013-04-05 16:44:00,
2013-04-05 11:45:00,62.6,39.8,30.11,SSE,159,2.7,3.5,43,0.00,OVC,,0.00,779.0,WeatherDisplay:10.37,2013-04-05 16:45:00,
2013-04-05 11:48:00,62.5,39.7,30.10,SE,144,4.6,5.8,43,0.00,OVC,,0.00,784.0,WeatherDisplay:10.37,2013-04-05 16:48:00,
2013-04-05 11:50:00,62.6,40.3,30.11,South,176,2.0,6.0,44,0.00,OVC,,0.00,777.0,WeatherDisplay:10.37,2013-04-05 16:50:00,
2013-04-05 11:53:00,63.7,41.4,30.11,WSW,249,3.4,6.0,44,0.00,OVC,,0.00,761.0,WeatherDisplay:10.37,2013-04-05 16:53:00,
2013-04-05 11:54:00,63.6,40.7,30.11,SSW,208,5.9,6.9,43,0.00,OVC,,0.00,784.0,WeatherDisplay:10.37,2013-04-05 16:54:00,
2013-04-05 11:55:00,63.4,40.5,30.11,SSW,194,4.5,10.4,43,0.00,OVC,,0.00,795.0,WeatherDisplay:10.37,2013-04-05 16:55:00,
2013-04-05 11:59:00,63.4,41.1,30.10,SE,142,0.8,2.3,44,0.00,OVC,,0.00,756.0,WeatherDisplay:10.37,2013-04-05 16:59:00,
2013-04-05 12:01:00,63.6,40.1,30.10,South,188,1.3,2.3,42,0.00,OVC,,0.00,773.0,WeatherDisplay:10.37,2013-04-05 17:01:00,
2013-04-05 12:04:00,63.5,40.0,30.10,South,173,2.4,3.5,42,0.00,OVC,,0.00,775.0,WeatherDisplay:10.37,2013-04-05 17:04:00,
2013-04-05 12:05:00,63.6,41.3,30.10,South,188,3.0,5.8,44,0.00,OVC,,0.00,802.0,WeatherDisplay:10.37,2013-04-05 17:05:00,
2013-04-05 12:06:00,64.4,42.0,30.10,South,169,3.7,5.8,44,0.00,OVC,,0.00,800.0,WeatherDisplay:10.37,2013-04-05 17:06:00,
2013-04-05 12:09:00,64.0,41.0,30.10,South,179,3.6,8.1,43,0.00,OVC,,0.00,809.0,WeatherDisplay:10.37,2013-04-05 17:09:00,
2013-04-05 12:10:00,63.8,40.9,30.10,South,187,3.6,5.8,43,0.00,OVC,,0.00,810.0,WeatherDisplay:10.37,2013-04-05 17:10:00,
2013-04-05 12:11:00,64.0,40.4,30.10,East,101,2.3,5.8,42,0.00,OVC,,0.00,803.0,WeatherDisplay:10.37,2013-04-05 17:11:00,
2013-04-05 12:12:00,64.0,41.0,30.10,ESE,103,1.4,3.5,43,0.00,OVC,,0.00,803.0,WeatherDisplay:10.37,2013-04-05 17:12:00,
2013-04-05 12:14:00,64.7,41.7,30.09,SSE,161,4.1,5.0,43,0.00,OVC,,0.00,795.0,WeatherDisplay:10.37,2013-04-05 17:14:00,
2013-04-05 12:15:00,64.8,41.2,30.10,SSE,162,3.3,6.9,42,0.00,OVC,,0.00,796.0,WeatherDisplay:10.37,2013-04-05 17:15:00,
2013-04-05 12:17:00,65.1,42.0,30.09,SE,146,4.4,5.8,43,0.00,OVC,,0.00,802.0,WeatherDisplay:10.37,2013-04-05 17:17:00,
2013-04-05 12:19:00,64.9,41.2,30.09,ESE,109,2.9,5.8,42,0.00,OVC,,0.00,809.0,WeatherDisplay:10.37,2013-04-05 17:19:00,
2013-04-05 12:21:00,64.9,41.2,30.09,SSE,155,2.5,3.5,42,0.00,OVC,,0.00,800.0,WeatherDisplay:10.37,2013-04-05 17:21:00,
2013-04-05 12:22:00,65.0,41.3,30.09,SSW,207,4.4,7.0,42,0.00,OVC,,0.00,805.0,WeatherDisplay:10.37,2013-04-05 17:22:00,
2013-04-05 12:23:00,65.0,41.3,30.09,SE,144,4.8,6.9,42,0.00,OVC,,0.00,800.0,WeatherDisplay:10.37,2013-04-05 17:23:00,
2013-04-05 12:25:00,65.2,40.9,30.09,SW,236,2.6,3.5,41,0.00,OVC,,0.00,784.0,WeatherDisplay:10.37,2013-04-05 17:25:00,
2013-04-05 12:27:00,65.3,41.0,30.09,SSE,166,3.3,6.9,41,0.00,OVC,,0.00,788.0,WeatherDisplay:10.37,2013-04-05 17:27:00,
2013-04-05 12:30:00,65.3,41.0,30.09,South,170,8.2,11.5,41,0.00,OVC,,0.00,810.0,WeatherDisplay:10.37,2013-04-05 17:30:00,
2013-04-05 12:31:00,65.4,42.3,30.09,ESE,107,6.1,11.5,43,0.00,OVC,,0.00,810.0,WeatherDisplay:10.37,2013-04-05 17:31:00,
2013-04-05 12:32:00,65.6,40.6,30.09,SSE,165,3.7,6.9,40,0.00,OVC,,0.00,814.0,WeatherDisplay:10.37,2013-04-05 17:32:00,
2013-04-05 12:33:00,65.7,41.3,30.09,SSE,157,4.6,6.9,41,0.00,OVC,,0.00,830.0,WeatherDisplay:10.37,2013-04-05 17:33:00,
2013-04-05 12:35:00,66.1,41.7,30.09,SSE,153,5.0,5.0,41,0.00,OVC,,0.00,817.0,WeatherDisplay:10.37,2013-04-05 17:35:00,
2013-04-05 12:37:00,65.9,40.9,30.09,SW,215,4.4,6.9,40,0.00,OVC,,0.00,819.0,WeatherDisplay:10.37,2013-04-05 17:37:00,
2013-04-05 12:38:00,65.9,40.9,30.09,South,184,4.2,6.9,40,0.00,OVC,,0.00,819.0,WeatherDisplay:10.37,2013-04-05 17:38:00,
2013-04-05 12:40:00,66.2,41.2,30.09,SSE,152,7.5,11.5,40,0.00,OVC,,0.00,837.0,WeatherDisplay:10.37,2013-04-05 17:40:00,
2013-04-05 12:43:00,66.2,41.8,30.09,South,178,4.2,6.9,41,0.00,OVC,,0.00,824.0,WeatherDisplay:10.37,2013-04-05 17:43:00,
2013-04-05 12:46:00,66.3,41.2,30.08,SSE,154,4.3,6.9,40,0.00,OVC,,0.00,817.0,WeatherDisplay:10.37,2013-04-05 17:46:00,
2013-04-05 12:48:00,66.7,41.6,30.08,SSW,196,5.1,8.1,40,0.00,OVC,,0.00,840.0,WeatherDisplay:10.37,2013-04-05 17:48:00,
2013-04-05 12:51:00,66.6,40.9,30.08,South,178,3.6,8.1,39,0.00,OVC,,0.00,851.0,WeatherDisplay:10.37,2013-04-05 17:51:00,
2013-04-05 12:53:00,66.7,40.9,30.08,South,190,4.9,7.0,39,0.00,OVC,,0.00,849.0,WeatherDisplay:10.37,2013-04-05 17:53:00,
2013-04-05 12:57:00,66.9,41.1,30.08,WSW,246,5.4,7.0,39,0.00,OVC,,0.00,817.0,WeatherDisplay:10.37,2013-04-05 17:57:00,
2013-04-05 12:58:00,66.9,41.1,30.08,WSW,238,4.9,9.2,39,0.00,OVC,,0.00,840.0,WeatherDisplay:10.37,2013-04-05 17:58:00,
2013-04-05 13:00:00,67.2,42.7,30.08,South,170,4.9,8.1,41,0.00,OVC,,0.00,844.0,WeatherDisplay:10.37,2013-04-05 18:00:00,
2013-04-05 13:02:00,67.2,40.7,30.08,SW,226,5.0,8.1,38,0.00,OVC,,0.00,844.0,WeatherDisplay:10.37,2013-04-05 18:02:00,
2013-04-05 13:03:00,67.1,41.3,30.08,South,190,5.7,8.0,39,0.00,OVC,,0.00,853.0,WeatherDisplay:10.37,2013-04-05 18:03:00,
2013-04-05 13:05:00,67.2,41.4,30.07,SSE,157,5.4,11.5,39,0.00,OVC,,0.00,861.0,WeatherDisplay:10.37,2013-04-05 18:05:00,
2013-04-05 13:07:00,66.9,41.1,30.07,SSE,153,1.3,8.1,39,0.00,OVC,,0.00,842.0,WeatherDisplay:10.37,2013-04-05 18:07:00,
2013-04-05 13:09:00,67.3,40.8,30.07,South,185,5.7,8.1,38,0.00,OVC,,0.00,853.0,WeatherDisplay:10.37,2013-04-05 18:09:00,
2013-04-05 13:10:00,67.4,40.9,30.07,South,169,5.7,8.1,38,0.00,OVC,,0.00,851.0,WeatherDisplay:10.37,2013-04-05 18:10:00,
2013-04-05 13:12:00,67.4,40.9,30.07,SSW,200,3.1,7.0,38,0.00,OVC,,0.00,846.0,WeatherDisplay:10.37,2013-04-05 18:12:00,
2013-04-05 13:14:00,67.6,41.1,30.07,South,188,4.9,9.2,38,0.00,OVC,,0.00,838.0,WeatherDisplay:10.37,2013-04-05 18:14:00,
2013-04-05 13:15:00,67.6,41.1,30.07,South,183,5.7,9.2,38,0.00,OVC,,0.00,868.0,WeatherDisplay:10.37,2013-04-05 18:15:00,
2013-04-05 13:17:00,67.7,40.5,30.06,SW,222,6.1,11.0,37,0.00,OVC,,0.00,731.0,WeatherDisplay:10.37,2013-04-05 18:17:00,
2013-04-05 13:20:00,67.5,41.0,30.06,SW,232,3.8,11.5,38,0.00,OVC,,0.00,831.0,WeatherDisplay:10.37,2013-04-05 18:20:00,
2013-04-05 13:22:00,66.8,40.4,30.06,South,171,4.9,10.4,38,0.00,OVC,,0.00,833.0,WeatherDisplay:10.37,2013-04-05 18:22:00,
2013-04-05 13:25:00,66.9,41.1,30.06,SW,221,6.3,10.4,39,0.00,OVC,,0.00,865.0,WeatherDisplay:10.37,2013-04-05 18:25:00,
2013-04-05 13:26:00,67.0,41.9,30.06,SSE,151,5.3,8.1,40,0.00,OVC,,0.00,861.0,WeatherDisplay:10.37,2013-04-05 18:26:00,
2013-04-05 13:28:00,67.6,43.7,30.06,SE,136,2.9,3.5,42,0.00,OVC,,0.00,838.0,WeatherDisplay:10.37,2013-04-05 18:28:00,
2013-04-05 13:30:00,68.0,41.4,30.06,SW,215,7.3,11.5,38,0.00,OVC,,0.00,821.0,WeatherDisplay:10.37,2013-04-05 18:30:00,
2013-04-05 13:31:00,68.1,41.5,30.06,SW,219,7.3,10.4,38,0.00,OVC,,0.00,821.0,WeatherDisplay:10.37,2013-04-05 18:31:00,
2013-04-05 13:33:00,67.8,41.3,30.06,SSW,209,5.9,9.2,38,0.00,OVC,,0.00,712.0,WeatherDisplay:10.37,2013-04-05 18:33:00,
2013-04-05 13:35:00,67.2,41.4,30.05,South,174,4.8,8.1,39,0.00,OVC,,0.00,752.0,WeatherDisplay:10.37,2013-04-05 18:35:00,
2013-04-05 13:36:00,67.1,42.0,30.05,South,172,4.8,5.8,40,0.00,OVC,,0.00,752.0,WeatherDisplay:10.37,2013-04-05 18:36:00,
2013-04-05 13:37:00,66.9,41.8,30.05,South,171,5.8,5.8,40,0.00,OVC,,0.00,803.0,WeatherDisplay:10.37,2013-04-05 18:37:00,
2013-04-05 13:38:00,66.9,41.8,30.05,SSW,212,5.1,8.1,40,0.00,OVC,,0.00,835.0,WeatherDisplay:10.37,2013-04-05 18:38:00,
2013-04-05 13:40:00,67.2,42.7,30.05,SSE,161,4.1,6.9,41,0.00,OVC,,0.00,826.0,WeatherDisplay:10.37,2013-04-05 18:40:00,
2013-04-05 13:41:00,67.6,43.1,30.05,SSE,163,6.2,9.0,41,0.00,OVC,,0.00,840.0,WeatherDisplay:10.37,2013-04-05 18:41:00,
2013-04-05 13:42:00,67.7,42.5,30.05,WSW,244,6.2,10.4,40,0.00,OVC,,0.00,810.0,WeatherDisplay:10.37,2013-04-05 18:42:00,
2013-04-05 13:44:00,68.1,42.2,30.05,South,173,4.0,9.2,39,0.00,OVC,,0.00,817.0,WeatherDisplay:10.37,2013-04-05 18:44:00,
2013-04-05 13:45:00,68.3,41.7,30.05,SSE,161,5.3,9.2,38,0.00,OVC,,0.00,840.0,WeatherDisplay:10.37,2013-04-05 18:45:00,
2013-04-05 13:47:00,68.3,41.0,30.05,SSE,167,4.9,8.1,37,0.00,OVC,,0.00,851.0,WeatherDisplay:10.37,2013-04-05 18:47:00,
2013-04-05 13:48:00,68.1,40.8,30.05,SSE,167,4.7,10.4,37,0.00,OVC,,0.00,796.0,WeatherDisplay:10.37,2013-04-05 18:48:00,
2013-04-05 13:49:00,68.2,40.9,30.05,SSW,201,2.4,5.8,37,0.00,OVC,,0.00,814.0,WeatherDisplay:10.37,2013-04-05 18:49:00,
2013-04-05 13:50:00,68.2,41.6,30.04,SSW,201,4.7,7.0,38,0.00,OVC,,0.00,824.0,WeatherDisplay:10.37,2013-04-05 18:50:00,
2013-04-05 13:52:00,67.8,41.3,30.04,SSE,159,6.1,12.7,38,0.00,OVC,,0.00,805.0,WeatherDisplay:10.37,2013-04-05 18:52:00,
2013-04-05 13:53:00,67.7,41.2,30.04,SSE,162,6.4,8.1,38,0.00,OVC,,0.00,791.0,WeatherDisplay:10.37,2013-04-05 18:53:00,
2013-04-05 13:55:00,67.7,41.2,30.04,South,178,7.0,13.0,38,0.00,OVC,,0.00,744.0,WeatherDisplay:10.37,2013-04-05 18:55:00,
2013-04-05 13:56:00,67.9,41.3,30.04,SSW,196,5.0,9.2,38,0.00,OVC,,0.00,735.0,WeatherDisplay:10.37,2013-04-05 18:56:00,
2013-04-05 13:57:00,68.1,41.5,30.04,South,181,2.4,5.8,38,0.00,OVC,,0.00,768.0,WeatherDisplay:10.37,2013-04-05 18:57:00,
2013-04-05 13:58:00,68.4,42.5,30.04,SSE,167,4.1,6.0,39,0.00,OVC,,0.00,717.0,WeatherDisplay:10.37,2013-04-05 18:58:00,
2013-04-05 14:00:00,68.2,40.9,30.03,SSE,168,7.3,11.0,37,0.00,OVC,,0.00,744.0,WeatherDisplay:10.37,2013-04-05 19:00:00,
2013-04-05 14:01:00,68.1,41.5,30.04,SSE,168,7.5,11.5,38,0.00,OVC,,0.00,823.0,WeatherDisplay:10.37,2013-04-05 19:01:00,
2013-04-05 14:02:00,68.1,41.5,30.03,SE,130,4.9,11.5,38,0.00,OVC,,0.00,819.0,WeatherDisplay:10.37,2013-04-05 19:02:00,
2013-04-05 14:04:00,68.0,41.4,30.03,South,170,5.6,11.5,38,0.00,OVC,,0.00,849.0,WeatherDisplay:10.37,2013-04-05 19:04:00,
2013-04-05 14:05:00,68.0,41.4,30.03,SW,217,6.2,10.4,38,0.00,OVC,,0.00,849.0,WeatherDisplay:10.37,2013-04-05 19:05:00,
2013-04-05 14:06:00,68.1,41.5,30.03,South,173,6.5,9.2,38,0.00,OVC,,0.00,837.0,WeatherDisplay:10.37,2013-04-05 19:06:00,
2013-04-05 14:07:00,68.2,41.6,30.03,SE,125,5.6,9.2,38,0.00,OVC,,0.00,837.0,WeatherDisplay:10.37,2013-04-05 19:07:00,
2013-04-05 14:10:00,67.9,41.3,30.03,SW,231,8.0,11.5,38,0.00,OVC,,0.00,768.0,WeatherDisplay:10.37,2013-04-05 19:10:00,
2013-04-05 14:12:00,67.7,42.5,30.03,SSW,202,4.9,8.1,40,0.00,OVC,,0.00,821.0,WeatherDisplay:10.37,2013-04-05 19:12:00,
2013-04-05 14:13:00,67.9,42.7,30.03,SW,216,5.9,7.0,40,0.00,OVC,,0.00,816.0,WeatherDisplay:10.37,2013-04-05 19:13:00,
2013-04-05 14:15:00,68.3,41.7,30.03,SSE,165,7.3,13.0,38,0.00,OVC,,0.00,777.0,WeatherDisplay:10.37,2013-04-05 19:15:00,
2013-04-05 14:17:00,68.3,41.7,30.02,WSW,253,6.2,8.1,38,0.00,OVC,,0.00,619.0,WeatherDisplay:10.37,2013-04-05 19:17:00,
2013-04-05 14:19:00,68.0,41.4,30.03,SSE,153,3.7,8.1,38,0.00,OVC,,0.00,701.0,WeatherDisplay:10.37,2013-04-05 19:19:00,
2013-04-05 14:20:00,68.1,41.5,30.02,WSW,240,4.3,6.9,38,0.00,OVC,,0.00,728.0,WeatherDisplay:10.37,2013-04-05 19:20:00,
2013-04-05 14:23:00,68.0,40.0,30.02,SSE,165,5.9,11.0,36,0.00,OVC,,0.00,663.0,WeatherDisplay:10.37,2013-04-05 19:23:00,
2013-04-05 14:24:00,67.9,40.7,30.02,SSE,165,6.8,11.5,37,0.00,OVC,,0.00,719.0,WeatherDisplay:10.37,2013-04-05 19:24:00,
2013-04-05 14:25:00,68.1,40.8,30.02,SSW,194,4.6,11.5,37,0.00,OVC,,0.00,817.0,WeatherDisplay:10.37,2013-04-05 19:25:00,
2013-04-05 14:28:00,68.5,41.9,30.02,South,185,2.3,8.1,38,0.00,OVC,,0.00,791.0,WeatherDisplay:10.37,2013-04-05 19:28:00,
2013-04-05 14:30:00,68.8,40.0,30.02,SSW,200,5.8,12.7,35,0.00,OVC,,0.00,719.0,WeatherDisplay:10.37,2013-04-05 19:30:00,
2013-04-05 14:31:00,68.8,40.0,30.02,West,272,2.8,6.9,35,0.00,OVC,,0.00,735.0,WeatherDisplay:10.37,2013-04-05 19:31:00,
2013-04-05 14:33:00,69.3,41.2,30.01,South,190,6.4,11.5,36,0.00,OVC,,0.00,765.0,WeatherDisplay:10.37,2013-04-05 19:33:00,
2013-04-05 14:35:00,69.5,41.4,30.01,SSE,151,6.0,10.4,36,0.00,OVC,,0.00,809.0,WeatherDisplay:10.37,2013-04-05 19:35:00,
2013-04-05 14:36:00,69.4,41.3,30.01,South,182,5.1,6.9,36,0.00,OVC,,0.00,846.0,WeatherDisplay:10.37,2013-04-05 19:36:00,
2013-04-05 14:38:00,69.6,41.5,30.01,South,178,5.4,8.0,36,0.00,OVC,,0.00,886.0,WeatherDisplay:10.37,2013-04-05 19:38:00,
2013-04-05 14:41:00,69.4,41.3,30.01,SW,225,4.9,10.4,36,0.00,OVC,,0.00,844.0,WeatherDisplay:10.37,2013-04-05 19:41:00,
2013-04-05 14:43:00,69.1,40.3,30.01,SW,229,5.0,11.5,35,0.00,OVC,,0.00,846.0,WeatherDisplay:10.37,2013-04-05 19:43:00,
2013-04-05 14:46:00,69.5,41.4,30.01,South,189,4.6,6.9,36,0.00,OVC,,0.00,872.0,WeatherDisplay:10.37,2013-04-05 19:46:00,
2013-04-05 14:47:00,69.5,40.6,30.01,West,263,4.7,7.0,35,0.00,OVC,,0.00,872.0,WeatherDisplay:10.37,2013-04-05 19:47:00,
2013-04-05 14:51:00,69.9,40.2,30.00,SSE,154,5.5,7.0,34,0.00,OVC,,0.00,817.0,WeatherDisplay:10.37,2013-04-05 19:51:00,
2013-04-05 14:52:00,69.8,40.9,30.00,SSE,166,6.4,10.4,35,0.00,OVC,,0.00,810.0,WeatherDisplay:10.37,2013-04-05 19:52:00,
2013-04-05 14:56:00,70.0,41.8,30.00,SE,134,4.2,10.4,36,0.00,OVC,,0.00,817.0,WeatherDisplay:10.37,2013-04-05 19:56:00,
2013-04-05 14:57:00,70.3,42.8,30.00,SSW,195,3.8,6.9,37,0.00,OVC,,0.00,796.0,WeatherDisplay:10.37,2013-04-05 19:57:00,
2013-04-05 15:02:00,69.9,41.0,29.99,South,188,7.1,15.0,35,0.00,OVC,,0.00,814.0,WeatherDisplay:10.37,2013-04-05 20:02:00,
2013-04-05 15:07:00,69.5,40.6,29.99,SSW,209,5.0,8.1,35,0.00,OVC,,0.00,814.0,WeatherDisplay:10.37,2013-04-05 20:07:00,
2013-04-05 15:08:00,69.8,41.6,29.99,SE,134,3.3,9.0,36,0.00,OVC,,0.00,802.0,WeatherDisplay:10.37,2013-04-05 20:08:00,
2013-04-05 15:12:00,69.6,41.5,29.99,SW,215,7.1,10.4,36,0.00,OVC,,0.00,737.0,WeatherDisplay:10.37,2013-04-05 20:12:00,
2013-04-05 15:13:00,69.6,41.5,29.99,SSE,155,7.1,10.0,36,0.00,OVC,,0.00,722.0,WeatherDisplay:10.37,2013-04-05 20:13:00,
2013-04-05 15:17:00,69.3,41.9,29.98,South,175,9.1,15.0,37,0.00,OVC,,0.00,684.0,WeatherDisplay:10.37,2013-04-05 20:17:00,
2013-04-05 15:19:00,69.4,42.0,29.98,SSE,154,7.2,9.2,37,0.00,OVC,,0.00,673.0,WeatherDisplay:10.37,2013-04-05 20:19:00,
2013-04-05 15:22:00,69.0,40.9,29.98,South,175,5.1,6.9,36,0.00,OVC,,0.00,696.0,WeatherDisplay:10.37,2013-04-05 20:22:00,
2013-04-05 15:23:00,69.0,42.3,29.98,South,178,2.0,6.9,38,0.00,OVC,,0.00,705.0,WeatherDisplay:10.37,2013-04-05 20:23:00,
2013-04-05 15:24:00,69.4,41.3,29.98,South,172,7.9,9.0,36,0.00,OVC,,0.00,729.0,WeatherDisplay:10.37,2013-04-05 20:24:00,
2013-04-05 15:28:00,69.3,40.5,29.98,South,188,4.6,11.5,35,0.00,OVC,,0.00,708.0,WeatherDisplay:10.37,2013-04-05 20:28:00,
2013-04-05 15:29:00,69.4,40.5,29.98,SSE,162,5.3,10.0,35,0.00,OVC,,0.00,715.0,WeatherDisplay:10.37,2013-04-05 20:29:00,
2013-04-05 15:33:00,69.6,41.5,29.97,South,186,5.0,12.0,36,0.00,OVC,,0.00,714.0,WeatherDisplay:10.37,2013-04-05 20:33:00,
2013-04-05 15:34:00,69.9,41.7,29.97,SW,215,6.0,12.7,36,0.00,OVC,,0.00,721.0,WeatherDisplay:10.37,2013-04-05 20:34:00,
2013-04-05 15:35:00,70.2,42.0,29.97,SSE,162,3.9,4.6,36,0.00,OVC,,0.00,708.0,WeatherDisplay:10.37,2013-04-05 20:35:00,
2013-04-05 15:39:00,70.1,41.2,29.97,SW,218,9.9,13.8,35,0.00,OVC,,0.00,717.0,WeatherDisplay:10.37,2013-04-05 20:39:00,
2013-04-05 15:40:00,69.9,41.0,29.97,South,181,7.7,17.3,35,0.00,OVC,,0.00,714.0,WeatherDisplay:10.37,2013-04-05 20:40:00,
2013-04-05 15:44:00,69.3,41.9,29.96,SSW,194,6.3,8.1,37,0.00,OVC,,0.00,691.0,WeatherDisplay:10.37,2013-04-05 20:44:00,
2013-04-05 15:45:00,69.3,41.2,29.96,South,184,5.6,9.2,36,0.00,OVC,,0.00,687.0,WeatherDisplay:10.37,2013-04-05 20:45:00,
2013-04-05 15:49:00,70.2,42.0,29.96,SSW,192,7.0,12.0,36,0.00,OVC,,0.00,680.0,WeatherDisplay:10.37,2013-04-05 20:49:00,
2013-04-05 15:50:00,70.3,42.1,29.97,SSE,160,7.0,9.2,36,0.00,OVC,,0.00,680.0,WeatherDisplay:10.37,2013-04-05 20:50:00,
2013-04-05 15:55:00,70.1,41.2,29.97,SSW,201,6.2,9.2,35,0.00,OVC,,0.00,659.0,WeatherDisplay:10.37,2013-04-05 20:55:00,
2013-04-05 16:00:00,69.6,40.7,29.96,SE,140,3.7,6.9,35,0.00,OVC,,0.00,643.0,WeatherDisplay:10.37,2013-04-05 21:00:00,
2013-04-05 16:01:00,69.4,41.3,29.96,SE,146,3.7,6.9,36,0.00,OVC,,0.00,645.0,WeatherDisplay:10.37,2013-04-05 21:01:00,
2013-04-05 16:02:00,69.7,41.5,29.96,SSE,163,3.8,4.6,36,0.00,OVC,,0.00,661.0,WeatherDisplay:10.37,2013-04-05 21:02:00,
2013-04-05 16:05:00,70.3,42.1,29.95,South,175,5.7,8.1,36,0.00,OVC,,0.00,663.0,WeatherDisplay:10.37,2013-04-05 21:05:00,
2013-04-05 16:06:00,70.3,41.3,29.95,SE,128,6.8,11.5,35,0.00,OVC,,0.00,673.0,WeatherDisplay:10.37,2013-04-05 21:06:00,
2013-04-05 16:07:00,70.3,41.3,29.95,SW,221,7.7,11.5,35,0.00,OVC,,0.00,663.0,WeatherDisplay:10.37,2013-04-05 21:07:00,
2013-04-05 16:10:00,69.9,41.7,29.95,South,188,6.0,9.2,36,0.00,OVC,,0.00,636.0,WeatherDisplay:10.37,2013-04-05 21:10:00,
2013-04-05 16:11:00,70.0,41.8,29.95,SSE,162,6.2,9.2,36,0.00,OVC,,0.00,624.0,WeatherDisplay:10.37,2013-04-05 21:11:00,
2013-04-05 16:12:00,70.0,41.1,29.95,SSE,167,9.3,13.8,35,0.00,OVC,,0.00,640.0,WeatherDisplay:10.37,2013-04-05 21:12:00,
2013-04-05 16:15:00,69.5,40.6,29.95,SE,142,5.1,11.5,35,0.00,OVC,,0.00,647.0,WeatherDisplay:10.37,2013-04-05 21:15:00,
2013-04-05 16:17:00,69.5,40.6,29.95,South,169,8.5,11.5,35,0.00,OVC,,0.00,640.0,WeatherDisplay:10.37,2013-04-05 21:17:00,
2013-04-05 16:18:00,69.5,41.4,29.95,South,178,7.9,16.0,36,0.00,OVC,,0.00,628.0,WeatherDisplay:10.37,2013-04-05 21:18:00,
2013-04-05 16:20:00,69.5,41.4,29.95,SSE,157,8.3,16.1,36,0.00,OVC,,0.00,619.0,WeatherDisplay:10.37,2013-04-05 21:20:00,
2013-04-05 16:22:00,69.6,41.5,29.94,SSW,199,6.6,12.7,36,0.00,OVC,,0.00,589.0,WeatherDisplay:10.37,2013-04-05 21:22:00,
2013-04-05 16:23:00,69.6,41.5,29.94,SE,140,6.1,12.7,36,0.00,OVC,,0.00,585.0,WeatherDisplay:10.37,2013-04-05 21:23:00,
2013-04-05 16:25:00,70.1,41.2,29.94,SSE,158,5.9,8.0,35,0.00,OVC,,0.00,592.0,WeatherDisplay:10.37,2013-04-05 21:25:00,
2013-04-05 16:27:00,70.3,41.3,29.94,SSE,165,7.5,11.5,35,0.00,OVC,,0.00,601.0,WeatherDisplay:10.37,2013-04-05 21:27:00,
2013-04-05 16:28:00,70.2,41.3,29.94,SSE,163,5.5,11.5,35,0.00,OVC,,0.00,598.0,WeatherDisplay:10.37,2013-04-05 21:28:00,
2013-04-05 16:29:00,70.3,40.6,29.94,SSW,205,5.9,9.2,34,0.00,OVC,,0.00,587.0,WeatherDisplay:10.37,2013-04-05 21:29:00,
2013-04-05 16:30:00,70.2,40.5,29.94,ESE,119,9.9,16.1,34,0.00,OVC,,0.00,592.0,WeatherDisplay:10.37,2013-04-05 21:30:00,
2013-04-05 16:32:00,70.0,40.3,29.94,SSE,150,7.4,11.5,34,0.00,OVC,,0.00,601.0,WeatherDisplay:10.37,2013-04-05 21:32:00,
2013-04-05 16:33:00,69.9,41.0,29.94,South,171,4.9,10.4,35,0.00,OVC,,0.00,598.0,WeatherDisplay:10.37,2013-04-05 21:33:00,
2013-04-05 16:34:00,69.8,40.2,29.94,South,174,7.9,12.7,34,0.00,OVC,,0.00,598.0,WeatherDisplay:10.37,2013-04-05 21:34:00,
2013-04-05 16:36:00,69.7,40.8,29.94,South,190,8.9,17.3,35,0.00,OVC,,0.00,577.0,WeatherDisplay:10.37,2013-04-05 21:36:00,
2013-04-05 16:37:00,69.8,40.9,29.94,SSW,193,7.3,11.5,35,0.00,OVC,,0.00,578.0,WeatherDisplay:10.37,2013-04-05 21:37:00,
2013-04-05 16:38:00,69.8,40.9,29.94,SSE,168,7.0,11.5,35,0.00,OVC,,0.00,578.0,WeatherDisplay:10.37,2013-04-05 21:38:00,
2013-04-05 16:39:00,70.1,41.2,29.94,South,191,7.7,11.5,35,0.00,OVC,,0.00,548.0,WeatherDisplay:10.37,2013-04-05 21:39:00,
2013-04-05 16:42:00,70.3,40.6,29.94,SW,223,6.9,12.7,34,0.00,OVC,,0.00,543.0,WeatherDisplay:10.37,2013-04-05 21:42:00,
2013-04-05 16:43:00,70.2,39.7,29.94,WSW,243,8.2,13.8,33,0.00,OVC,,0.00,529.0,WeatherDisplay:10.37,2013-04-05 21:43:00,
2013-04-05 16:44:00,70.1,40.4,29.94,SSW,203,5.3,11.5,34,0.00,OVC,,0.00,536.0,WeatherDisplay:10.37,2013-04-05 21:44:00,
2013-04-05 16:47:00,70.2,40.5,29.94,SSW,192,7.3,11.5,34,0.00,OVC,,0.00,545.0,WeatherDisplay:10.37,2013-04-05 21:47:00,
2013-04-05 16:48:00,70.2,40.5,29.93,SW,229,6.0,9.2,34,0.00,OVC,,0.00,519.0,WeatherDisplay:10.37,2013-04-05 21:48:00,
2013-04-05 16:49:00,70.2,39.7,29.93,WSW,238,6.4,11.5,33,0.00,OVC,,0.00,533.0,WeatherDisplay:10.37,2013-04-05 21:49:00,
2013-04-05 16:52:00,70.4,39.9,29.93,SSW,200,6.7,10.4,33,0.00,OVC,,0.00,547.0,WeatherDisplay:10.37,2013-04-05 21:52:00,
2013-04-05 16:53:00,70.4,39.9,29.93,SE,128,5.8,11.5,33,0.00,OVC,,0.00,547.0,WeatherDisplay:10.37,2013-04-05 21:53:00,
2013-04-05 16:54:00,70.5,40.0,29.93,South,173,5.0,12.0,33,0.00,OVC,,0.00,476.0,WeatherDisplay:10.37,2013-04-05 21:54:00,
2013-04-05 16:55:00,70.7,40.2,29.93,SE,141,4.5,8.1,33,0.00,OVC,,0.00,476.0,WeatherDisplay:10.37,2013-04-05 21:55:00,
2013-04-05 16:57:00,70.4,39.9,29.93,SSW,198,6.4,11.5,33,0.00,OVC,,0.00,584.0,WeatherDisplay:10.37,2013-04-05 21:57:00,
2013-04-05 16:58:00,70.3,39.8,29.93,South,190,6.6,10.4,33,0.00,OVC,,0.00,584.0,WeatherDisplay:10.37,2013-04-05 21:58:00,
2013-04-05 17:00:00,69.9,40.2,29.92,SSE,163,5.5,11.5,34,0.00,OVC,,0.00,290.0,WeatherDisplay:10.37,2013-04-05 22:00:00,
2013-04-05 17:02:00,69.8,40.2,29.92,South,184,7.4,12.0,34,0.00,OVC,,0.00,510.0,WeatherDisplay:10.37,2013-04-05 22:02:00,
2013-04-05 17:03:00,69.8,40.2,29.92,SSW,209,9.1,12.7,34,0.00,OVC,,0.00,510.0,WeatherDisplay:10.37,2013-04-05 22:03:00,
2013-04-05 17:05:00,70.0,40.3,29.92,SSW,208,5.6,10.4,34,0.00,OVC,,0.00,519.0,WeatherDisplay:10.37,2013-04-05 22:05:00,
2013-04-05 17:07:00,70.1,39.6,29.92,South,183,7.7,14.0,33,0.00,OVC,,0.00,508.0,WeatherDisplay:10.37,2013-04-05 22:07:00,
2013-04-05 17:09:00,70.1,40.4,29.92,South,188,6.8,13.8,34,0.00,OVC,,0.00,469.0,WeatherDisplay:10.37,2013-04-05 22:09:00,
2013-04-05 17:10:00,70.1,39.6,29.92,SSW,202,8.1,12.7,33,0.00,OVC,,0.00,485.0,WeatherDisplay:10.37,2013-04-05 22:10:00,
2013-04-05 17:13:00,69.9,39.5,29.92,SSE,159,8.2,12.7,33,0.00,OVC,,0.00,489.0,WeatherDisplay:10.37,2013-04-05 22:13:00,
2013-04-05 17:14:00,69.9,39.5,29.92,South,184,6.9,13.8,33,0.00,OVC,,0.00,499.0,WeatherDisplay:10.37,2013-04-05 22:14:00,
2013-04-05 17:15:00,69.8,40.2,29.92,South,184,6.2,12.7,34,0.00,OVC,,0.00,494.0,WeatherDisplay:10.37,2013-04-05 22:15:00,
2013-04-05 17:16:00,69.8,40.2,29.92,SSW,203,5.4,8.1,34,0.00,OVC,,0.00,494.0,WeatherDisplay:10.37,2013-04-05 22:16:00,
2013-04-05 17:18:00,70.0,40.3,29.92,SSE,150,5.7,8.0,34,0.00,OVC,,0.00,464.0,WeatherDisplay:10.37,2013-04-05 22:18:00,
2013-04-05 17:19:00,70.0,39.6,29.92,SSE,157,7.1,10.4,33,0.00,OVC,,0.00,436.0,WeatherDisplay:10.37,2013-04-05 22:19:00,
2013-04-05 17:20:00,70.0,39.6,29.92,SSE,157,6.4,10.4,33,0.00,OVC,,0.00,457.0,WeatherDisplay:10.37,2013-04-05 22:20:00,
2013-04-05 17:22:00,70.0,39.6,29.92,SSE,167,7.5,13.0,33,0.00,OVC,,0.00,457.0,WeatherDisplay:10.37,2013-04-05 22:22:00,
2013-04-05 17:24:00,69.8,38.6,29.92,South,172,8.0,13.0,32,0.00,OVC,,0.00,415.0,WeatherDisplay:10.37,2013-04-05 22:24:00,
2013-04-05 17:26:00,69.7,38.5,29.92,South,169,6.7,11.5,32,0.00,OVC,,0.00,367.0,WeatherDisplay:10.37,2013-04-05 22:26:00,
2013-04-05 17:27:00,69.7,40.1,29.91,SW,223,4.2,12.0,34,0.00,OVC,,0.00,269.0,WeatherDisplay:10.37,2013-04-05 22:27:00,
2013-04-05 17:29:00,69.6,39.2,29.91,SSE,148,4.2,10.4,33,0.00,OVC,,0.00,332.0,WeatherDisplay:10.37,2013-04-05 22:29:00,
2013-04-05 17:31:00,69.6,39.2,29.91,SW,233,5.7,10.4,33,0.00,OVC,,0.00,387.0,WeatherDisplay:10.37,2013-04-05 22:31:00,
2013-04-05 17:33:00,69.6,40.0,29.91,South,184,7.9,11.5,34,0.00,OVC,,0.00,397.0,WeatherDisplay:10.37,2013-04-05 22:33:00,
2013-04-05 17:35:00,69.5,40.6,29.91,SSE,168,4.3,7.0,35,0.00,OVC,,0.00,403.0,WeatherDisplay:10.37,2013-04-05 22:35:00,
2013-04-05 17:36:00,69.6,40.7,29.91,SSE,156,6.8,11.5,35,0.00,OVC,,0.00,336.0,WeatherDisplay:10.37,2013-04-05 22:36:00,
2013-04-05 17:38:00,69.6,40.7,29.91,South,177,8.9,18.4,35,0.00,OVC,,0.00,385.0,WeatherDisplay:10.37,2013-04-05 22:38:00,
2013-04-05 17:40:00,69.4,40.5,29.91,SSE,151,6.3,11.5,35,0.00,OVC,,0.00,374.0,WeatherDisplay:10.37,2013-04-05 22:40:00,
2013-04-05 17:42:00,69.3,40.5,29.91,SSE,168,8.1,11.5,35,0.00,OVC,,0.00,360.0,WeatherDisplay:10.37,2013-04-05 22:42:00,
2013-04-05 17:43:00,69.3,41.2,29.91,SSE,161,4.3,8.1,36,0.00,OVC,,0.00,269.0,WeatherDisplay:10.37,2013-04-05 22:43:00,
2013-04-05 17:45:00,69.2,41.1,29.91,WSW,246,6.6,11.5,36,0.00,OVC,,0.00,190.0,WeatherDisplay:10.37,2013-04-05 22:45:00,
2013-04-05 17:47:00,69.0,40.9,29.91,South,169,9.8,16.1,36,0.00,OVC,,0.00,183.0,WeatherDisplay:10.37,2013-04-05 22:47:00,
2013-04-05 17:48:00,68.8,41.5,29.91,SSE,155,6.3,9.2,37,0.00,OVC,,0.00,183.0,WeatherDisplay:10.37,2013-04-05 22:48:00,
2013-04-05 17:50:00,68.5,41.9,29.90,SE,145,7.1,10.4,38,0.00,OVC,,0.00,243.0,WeatherDisplay:10.37,2013-04-05 22:50:00,
2013-04-05 17:52:00,68.2,41.6,29.90,South,185,6.5,11.5,38,0.00,OVC,,0.00,195.0,WeatherDisplay:10.37,2013-04-05 22:52:00,
2013-04-05 17:55:00,67.9,41.3,29.91,SW,221,9.8,16.1,38,0.00,OVC,,0.00,98.0,WeatherDisplay:10.37,2013-04-05 22:55:00,
2013-04-05 17:57:00,67.7,41.8,29.90,SSE,148,4.9,10.4,39,0.00,OVC,,0.00,93.0,WeatherDisplay:10.37,2013-04-05 22:57:00,
2013-04-05 17:58:00,67.6,41.7,29.91,SW,219,3.6,6.9,39,0.00,OVC,,0.00,104.0,WeatherDisplay:10.37,2013-04-05 22:58:00,
2013-04-05 18:00:00,67.5,41.7,29.91,SE,137,8.3,11.5,39,0.00,CLR,,0.00,90.0,WeatherDisplay:10.37,2013-04-05 23:00:00,
2013-04-05 18:02:00,67.3,41.5,29.90,SSE,155,7.1,11.5,39,0.00,CLR,,0.00,90.0,WeatherDisplay:10.37,2013-04-05 23:02:00,
2013-04-05 18:03:00,67.3,41.5,29.90,South,178,6.2,11.5,39,0.00,CLR,,0.00,90.0,WeatherDisplay:10.37,2013-04-05 23:03:00,
2013-04-05 18:04:00,67.3,42.1,29.90,SSE,149,5.5,10.4,40,0.00,CLR,,0.00,91.0,WeatherDisplay:10.37,2013-04-05 23:04:00,
2013-04-05 18:05:00,67.2,42.0,29.90,South,189,8.9,10.4,40,0.00,CLR,,0.00,98.0,WeatherDisplay:10.37,2013-04-05 23:05:00,
2013-04-05 18:07:00,67.1,42.0,29.90,South,184,6.2,11.5,40,0.00,CLR,,0.00,118.0,WeatherDisplay:10.37,2013-04-05 23:07:00,
2013-04-05 18:08:00,67.1,41.3,29.90,SSE,150,7.7,10.4,39,0.00,CLR,,0.00,118.0,WeatherDisplay:10.37,2013-04-05 23:08:00,
2013-04-05 18:09:00,67.1,42.0,29.90,South,172,7.6,11.5,40,0.00,CLR,,0.00,116.0,WeatherDisplay:10.37,2013-04-05 23:09:00,
2013-04-05 18:11:00,67.0,41.9,29.90,South,184,9.4,12.7,40,0.00,CLR,,0.00,121.0,WeatherDisplay:10.37,2013-04-05 23:11:00,
2013-04-05 18:13:00,67.0,41.9,29.90,South,179,5.2,9.2,40,0.00,CLR,,0.00,127.0,WeatherDisplay:10.37,2013-04-05 23:13:00,
2013-04-05 18:15:00,67.1,42.0,29.90,SSE,167,5.1,8.1,40,0.00,CLR,,0.00,132.0,WeatherDisplay:10.37,2013-04-05 23:15:00,
2013-04-05 18:17:00,67.2,42.0,29.90,South,180,8.6,11.5,40,0.00,CLR,,0.00,128.0,WeatherDisplay:10.37,2013-04-05 23:17:00,
2013-04-05 18:18:00,67.2,42.0,29.90,South,171,6.3,12.7,40,0.00,CLR,,0.00,128.0,WeatherDisplay:10.37,2013-04-05 23:18:00,
2013-04-05 18:19:00,67.2,42.0,29.90,SE,141,4.5,6.9,40,0.00,CLR,,0.00,121.0,WeatherDisplay:10.37,2013-04-05 23:19:00,
2013-04-05 18:20:00,67.3,42.1,29.90,South,172,5.6,10.4,40,0.00,CLR,,0.00,116.0,WeatherDisplay:10.37,2013-04-05 23:20:00,
2013-04-05 18:22:00,67.3,42.1,29.90,SE,144,7.5,10.4,40,0.00,CLR,,0.00,102.0,WeatherDisplay:10.37,2013-04-05 23:22:00,
2013-04-05 18:23:00,67.2,42.0,29.90,South,170,7.5,11.5,40,0.00,CLR,,0.00,102.0,WeatherDisplay:10.37,2013-04-05 23:23:00,
2013-04-05 18:24:00,67.2,42.0,29.90,South,173,8.0,9.2,40,0.00,CLR,,0.00,91.0,WeatherDisplay:10.37,2013-04-05 23:24:00,
2013-04-05 18:25:00,67.2,42.0,29.90,SSE,152,7.8,13.8,40,0.00,CLR,,0.00,86.0,WeatherDisplay:10.37,2013-04-05 23:25:00,
2013-04-05 18:27:00,67.0,41.9,29.90,SSW,199,6.0,13.8,40,0.00,CLR,,0.00,74.0,WeatherDisplay:10.37,2013-04-05 23:27:00,
2013-04-05 18:28:00,67.0,41.9,29.90,SSE,164,5.8,9.2,40,0.00,CLR,,0.00,74.0,WeatherDisplay:10.37,2013-04-05 23:28:00,
2013-04-05 18:29:00,66.9,42.4,29.90,South,171,4.0,6.9,41,0.00,CLR,,0.00,69.0,WeatherDisplay:10.37,2013-04-05 23:29:00,
2013-04-05 18:30:00,66.8,41.7,29.90,SSE,152,6.2,8.1,40,0.00,CLR,,0.00,65.0,WeatherDisplay:10.37,2013-04-05 23:30:00,
2013-04-05 18:33:00,66.7,41.6,29.90,SSE,163,8.6,12.7,40,0.00,CLR,,0.00,62.0,WeatherDisplay:10.37,2013-04-05 23:33:00,
2013-04-05 18:34:00,66.6,41.5,29.90,South,182,8.1,17.3,40,0.00,CLR,,0.00,62.0,WeatherDisplay:10.37,2013-04-05 23:34:00,
2013-04-05 18:35:00,66.6,42.2,29.90,South,175,4.6,9.2,41,0.00,FEW,,0.00,60.0,WeatherDisplay:10.37,2013-04-05 23:35:00,
2013-04-05 18:38:00,66.5,42.1,29.90,SSE,168,5.4,11.5,41,0.00,SCT,,0.00,58.0,WeatherDisplay:10.37,2013-04-05 23:38:00,
2013-04-05 18:40:00,66.4,42.0,29.90,SSE,155,5.4,10.4,41,0.00,SCT,,0.00,58.0,WeatherDisplay:10.37,2013-04-05 23:40:00,
2013-04-05 18:42:00,66.3,41.9,29.89,SSE,152,4.4,5.8,41,0.00,SCT,,0.00,54.0,WeatherDisplay:10.37,2013-04-05 23:42:00,
2013-04-05 18:43:00,66.3,41.9,29.90,SSE,167,6.8,8.1,41,0.00,SCT,,0.00,53.0,WeatherDisplay:10.37,2013-04-05 23:43:00,
2013-04-05 18:45:00,66.2,41.8,29.89,South,179,6.7,9.2,41,0.00,BKN,,0.00,49.0,WeatherDisplay:10.37,2013-04-05 23:45:00,
2013-04-05 18:47:00,66.1,41.7,29.89,South,178,9.2,13.8,41,0.00,BKN,,0.00,44.0,WeatherDisplay:10.37,2013-04-05 23:47:00,
2013-04-05 18:48:00,66.0,41.6,29.89,SSE,166,6.6,9.2,41,0.00,BKN,,0.00,44.0,WeatherDisplay:10.37,2013-04-05 23:48:00,
2013-04-05 18:49:00,66.0,41.6,29.89,SSE,153,6.1,10.4,41,0.00,BKN,,0.00,42.0,WeatherDisplay:10.37,2013-04-05 23:49:00,
2013-04-05 18:50:00,65.9,41.5,29.89,SSW,199,5.1,8.1,41,0.00,BKN,,0.00,42.0,WeatherDisplay:10.37,2013-04-05 23:50:00,
2013-04-05 18:52:00,65.8,41.4,29.89,South,178,4.7,13.8,41,0.00,BKN,,0.00,40.0,WeatherDisplay:10.37,2013-04-05 23:52:00,
2013-04-05 18:53:00,65.8,42.1,29.89,SSE,160,4.1,6.9,42,0.00,BKN,,0.00,40.0,WeatherDisplay:10.37,2013-04-05 23:53:00,
2013-04-05 18:54:00,65.7,42.0,29.89,South,181,5.3,8.1,42,0.00,BKN,,0.00,40.0,WeatherDisplay:10.37,2013-04-05 23:54:00,
2013-04-05 18:55:00,65.7,42.0,29.89,South,171,4.8,8.1,42,0.00,BKN,,0.00,39.0,WeatherDisplay:10.37,2013-04-05 23:55:00,
2013-04-05 18:57:00,65.6,41.9,29.89,SSW,202,6.1,10.4,42,0.00,BKN,,0.00,39.0,WeatherDisplay:10.37,2013-04-05 23:57:00,
2013-04-05 18:59:00,65.5,41.8,29.89,South,170,4.7,10.4,42,0.00,BKN,,0.00,37.0,WeatherDisplay:10.37,2013-04-05 23:59:00,
2013-04-05 19:00:00,65.5,41.8,29.89,SSE,155,4.2,6.9,42,0.00,BKN,,0.00,35.0,WeatherDisplay:10.37,2013-04-06 00:00:00,
2013-04-05 19:03:00,65.4,41.7,29.89,SE,140,2.9,3.5,42,0.00,BKN,,0.00,33.0,WeatherDisplay:10.37,2013-04-06 00:03:00,
2013-04-05 19:04:00,65.3,41.6,29.89,South,180,4.8,10.0,42,0.00,BKN,,0.00,32.0,WeatherDisplay:10.37,2013-04-06 00:04:00,
2013-04-05 19:05:00,65.3,41.6,29.89,South,188,5.0,10.0,42,0.00,BKN,,0.00,32.0,WeatherDisplay:10.37,2013-04-06 00:05:00,
2013-04-05 19:08:00,65.2,41.5,29.89,SSE,151,7.5,11.5,42,0.00,BKN,,0.00,26.0,WeatherDisplay:10.37,2013-04-06 00:08:00,
2013-04-05 19:09:00,65.1,41.4,29.89,SSE,162,3.0,12.0,42,0.00,BKN,,0.00,25.0,WeatherDisplay:10.37,2013-04-06 00:09:00,
2013-04-05 19:10:00,65.1,42.0,29.89,SSE,159,3.3,4.6,43,0.00,BKN,,0.00,25.0,WeatherDisplay:10.37,2013-04-06 00:10:00,
2013-04-05 19:11:00,65.1,41.4,29.89,South,171,6.7,15.0,42,0.00,BKN,,0.00,25.0,WeatherDisplay:10.37,2013-04-06 00:11:00,
2013-04-05 19:13:00,65.0,41.9,29.89,South,185,3.5,9.2,43,0.00,BKN,,0.00,21.0,WeatherDisplay:10.37,2013-04-06 00:13:00,
2013-04-05 19:15:00,65.0,41.9,29.88,SE,134,6.3,10.4,43,0.00,BKN,,0.00,21.0,WeatherDisplay:10.37,2013-04-06 00:15:00,
2013-04-05 19:16:00,64.9,41.9,29.88,South,178,4.6,10.4,43,0.00,BKN,,0.00,19.0,WeatherDisplay:10.37,2013-04-06 00:16:00,
2013-04-05 19:18:00,64.8,41.8,29.88,ESE,123,6.0,9.2,43,0.00,BKN,,0.00,19.0,WeatherDisplay:10.37,2013-04-06 00:18:00,
2013-04-05 19:20:00,64.7,41.7,29.88,South,187,3.8,5.0,43,0.00,BKN,,0.00,18.0,WeatherDisplay:10.37,2013-04-06 00:20:00,
2013-04-05 19:21:00,64.7,41.7,29.88,SSW,194,5.7,11.5,43,0.00,BKN,,0.00,18.0,WeatherDisplay:10.37,2013-04-06 00:21:00,
2013-04-05 19:25:00,64.5,42.1,29.88,South,175,4.3,9.2,44,0.00,BKN,,0.00,12.0,WeatherDisplay:10.37,2013-04-06 00:25:00,
2013-04-05 19:26:00,64.5,42.1,29.88,SSE,161,4.4,6.9,44,0.00,CLR,,0.00,12.0,WeatherDisplay:10.37,2013-04-06 00:26:00,
2013-04-05 19:30:00,64.3,41.9,29.88,SSE,151,4.8,6.9,44,0.00,CLR,,0.00,9.0,WeatherDisplay:10.37,2013-04-06 00:30:00,
2013-04-05 19:31:00,64.3,41.9,29.88,South,189,4.5,8.1,44,0.00,CLR,,0.00,7.0,WeatherDisplay:10.37,2013-04-06 00:31:00,
2013-04-05 19:32:00,64.2,41.8,29.88,SSE,162,5.9,11.5,44,0.00,CLR,,0.00,7.0,WeatherDisplay:10.37,2013-04-06 00:32:00,
2013-04-05 19:35:00,64.1,41.7,29.88,SSE,158,5.3,8.1,44,0.00,CLR,,0.00,5.0,WeatherDisplay:10.37,2013-04-06 00:35:00,
2013-04-05 19:37:00,64.0,42.2,29.88,SE,146,5.3,8.1,45,0.00,CLR,,0.00,0.0,WeatherDisplay:10.37,2013-04-06 00:37:00,
2013-04-05 19:40:00,63.9,42.1,29.88,South,174,5.3,11.0,45,0.00,CLR,,0.00,0.0,WeatherDisplay:10.37,2013-04-06 00:40:00,
2013-04-05 19:42:00,63.9,42.1,29.88,South,187,6.3,13.8,45,0.00,CLR,,0.00,0.0,WeatherDisplay:10.37,2013-04-06 00:42:00,
2013-04-05 19:45:00,63.8,42.0,29.88,South,173,4.5,11.5,45,0.00,CLR,,0.00,0.0,WeatherDisplay:10.37,2013-04-06 00:45:00,
2013-04-05 19:47:00,63.8,42.6,29.88,SSE,161,5.1,8.1,46,0.00,CLR,,0.00,0.0,WeatherDisplay:10.37,2013-04-06 00:47:00,
2013-04-05 19:48:00,63.8,42.6,29.88,SE,138,4.8,8.1,46,0.00,CLR,,0.00,0.0,WeatherDisplay:10.37,2013-04-06 00:48:00,
2013-04-05 19:51:00,63.6,42.4,29.88,South,175,3.3,5.8,46,0.00,CLR,,0.00,0.0,WeatherDisplay:10.37,2013-04-06 00:51:00,
2013-04-05 19:53:00,63.6,42.4,29.88,SSW,209,3.0,8.0,46,0.00,CLR,,0.00,0.0,WeatherDisplay:10.37,2013-04-06 00:53:00,
2013-04-05 19:56:00,63.4,42.2,29.88,SE,140,5.8,9.2,46,0.00,CLR,,0.00,0.0,WeatherDisplay:10.37,2013-04-06 00:56:00,
2013-04-05 19:58:00,63.3,42.2,29.88,South,178,3.4,5.0,46,0.00,CLR,,0.00,0.0,WeatherDisplay:10.37,2013-04-06 00:58:00,
2013-04-05 20:00:00,63.2,42.1,29.88,SSE,167,4.1,6.9,46,0.00,CLR,,0.00,0.0,WeatherDisplay:10.37,2013-04-06 01:00:00,
2013-04-05 20:01:00,63.2,42.1,29.88,SSE,164,5.1,6.9,46,0.00,CLR,,0.00,0.0,WeatherDisplay:10.37,2013-04-06 01:01:00,
2013-04-05 20:03:00,63.1,42.0,29.87,South,186,5.5,9.2,46,0.00,CLR,,0.00,0.0,WeatherDisplay:10.37,2013-04-06 01:03:00,
2013-04-05 20:05:00,63.1,42.0,29.87,SSW,198,4.5,6.9,46,0.00,CLR,,0.00,0.0,WeatherDisplay:10.37,2013-04-06 01:05:00,
2013-04-05 20:06:00,63.1,42.0,29.88,South,173,5.6,8.1,46,0.00,CLR,,0.00,0.0,WeatherDisplay:10.37,2013-04-06 01:06:00,
2013-04-05 20:08:00,63.1,42.0,29.88,South,181,5.7,8.0,46,0.00,CLR,,0.00,0.0,WeatherDisplay:10.37,2013-04-06 01:08:00,
2013-04-05 20:10:00,63.1,41.4,29.88,SSE,166,6.5,10.4,45,0.00,CLR,,0.00,0.0,WeatherDisplay:10.37,2013-04-06 01:10:00,
2013-04-05 20:12:00,63.0,41.3,29.88,South,178,4.0,5.8,45,0.00,CLR,,0.00,0.0,WeatherDisplay:10.37,2013-04-06 01:12:00,
2013-04-05 20:13:00,63.0,41.9,29.87,SSW,205,3.2,5.8,46,0.00,CLR,,0.00,0.0,WeatherDisplay:10.37,2013-04-06 01:13:00,
2013-04-05 20:15:00,62.8,41.7,29.88,South,171,2.2,3.5,46,0.00,CLR,,0.00,0.0,WeatherDisplay:10.37,2013-04-06 01:15:00,
2013-04-05 20:18:00,62.6,41.5,29.88,SSE,156,5.2,7.0,46,0.00,CLR,,0.00,0.0,WeatherDisplay:10.37,2013-04-06 01:18:00,
2013-04-05 20:20:00,62.5,41.4,29.87,South,180,2.1,3.5,46,0.00,CLR,,0.00,0.0,WeatherDisplay:10.37,2013-04-06 01:20:00,
2013-04-05 20:23:00,62.4,41.9,29.88,South,177,2.2,4.6,47,0.00,CLR,,0.00,0.0,WeatherDisplay:10.37,2013-04-06 01:23:00,
2013-04-05 20:24:00,62.3,41.8,29.87,SSE,156,2.7,3.5,47,0.00,CLR,,0.00,0.0,WeatherDisplay:10.37,2013-04-06 01:24:00,
2013-04-05 20:25:00,62.2,41.7,29.87,SSE,158,2.5,4.6,47,0.00,CLR,,0.00,0.0,WeatherDisplay:10.37,2013-04-06 01:25:00,
2013-04-05 20:28:00,62.1,41.6,29.87,South,187,3.9,6.9,47,0.00,CLR,,0.00,0.0,WeatherDisplay:10.37,2013-04-06 01:28:00,
2013-04-05 20:29:00,62.1,41.6,29.87,SSW,202,3.9,8.1,47,0.00,CLR,,0.00,0.0,WeatherDisplay:10.37,2013-04-06 01:29:00,
2013-04-05 20:30:00,62.0,41.5,29.87,SSE,167,5.1,5.8,47,0.00,CLR,,0.00,0.0,WeatherDisplay:10.37,2013-04-06 01:30:00,
2013-04-05 20:34:00,62.0,41.5,29.87,SSE,156,5.0,8.0,47,0.00,CLR,,0.00,0.0,WeatherDisplay:10.37,2013-04-06 01:34:00,
2013-04-05 20:35:00,62.0,41.5,29.87,SSE,164,3.2,5.8,47,0.00,CLR,,0.00,0.0,WeatherDisplay:10.37,2013-04-06 01:35:00,
2013-04-05 20:39:00,61.8,41.9,29.87,SSE,162,5.0,8.0,48,0.00,CLR,,0.00,0.0,WeatherDisplay:10.37,2013-04-06 01:39:00,
2013-04-05 20:40:00,61.8,41.9,29.87,South,187,4.5,8.0,48,0.00,CLR,,0.00,0.0,WeatherDisplay:10.37,2013-04-06 01:40:00,
2013-04-05 20:41:00,61.7,41.8,29.87,SSW,195,5.4,10.4,48,0.00,CLR,,0.00,0.0,WeatherDisplay:10.37,2013-04-06 01:41:00,
2013-04-05 20:45:00,61.7,41.8,29.87,South,188,4.9,6.0,48,0.00,CLR,,0.00,0.0,WeatherDisplay:10.37,2013-04-06 01:45:00,
2013-04-05 20:47:00,61.7,41.8,29.87,SSE,165,5.1,5.8,48,0.00,CLR,,0.00,0.0,WeatherDisplay:10.37,2013-04-06 01:47:00,
2013-04-05 20:50:00,61.4,42.1,29.87,SSE,148,4.2,6.9,49,0.00,CLR,,0.00,0.0,WeatherDisplay:10.37,2013-04-06 01:50:00,
2013-04-05 20:51:00,61.4,42.1,29.87,SSE,157,3.2,6.9,49,0.00,CLR,,0.00,0.0,WeatherDisplay:10.37,2013-04-06 01:51:00,
2013-04-05 20:52:00,61.3,42.0,29.87,SSE,152,3.9,6.9,49,0.00,CLR,,0.00,0.0,WeatherDisplay:10.37,2013-04-06 01:52:00,
2013-04-05 20:55:00,61.3,42.0,29.87,SSE,167,4.2,6.9,49,0.00,CLR,,0.00,0.0,WeatherDisplay:10.37,2013-04-06 01:55:00,
2013-04-05 20:56:00,61.3,42.0,29.87,South,173,5.1,8.1,49,0.00,CLR,,0.00,0.0,WeatherDisplay:10.37,2013-04-06 01:56:00,
2013-04-05 20:58:00,61.2,41.9,29.87,SSE,155,3.2,5.8,49,0.00,CLR,,0.00,0.0,WeatherDisplay:10.37,2013-04-06 01:58:00,
2013-04-05 21:01:00,61.1,41.8,29.87,SSE,151,3.2,8.1,49,0.00,CLR,,0.00,0.0,WeatherDisplay:10.37,2013-04-06 02:01:00,
2013-04-05 21:02:00,61.1,41.8,29.87,SSW,195,3.9,5.8,49,0.00,CLR,,0.00,0.0,WeatherDisplay:10.37,2013-04-06 02:02:00,
2013-04-05 21:03:00,61.0,42.2,29.87,South,186,3.0,4.6,50,0.00,CLR,,0.00,0.0,WeatherDisplay:10.37,2013-04-06 02:03:00,
2013-04-05 21:06:00,60.9,42.1,29.87,SE,136,3.5,5.8,50,0.00,CLR,,0.00,0.0,WeatherDisplay:10.37,2013-04-06 02:06:00,
2013-04-05 21:07:00,60.9,42.1,29.87,South,181,4.1,8.1,50,0.00,CLR,,0.00,0.0,WeatherDisplay:10.37,2013-04-06 02:07:00,
2013-04-05 21:08:00,60.9,42.1,29.87,SSW,202,3.7,5.8,50,0.00,CLR,,0.00,0.0,WeatherDisplay:10.37,2013-04-06 02:08:00,
2013-04-05 21:11:00,60.7,41.9,29.87,SSE,156,3.8,6.9,50,0.00,CLR,,0.00,0.0,WeatherDisplay:10.37,2013-04-06 02:11:00,
2013-04-05 21:12:00,60.7,41.9,29.87,SSE,159,4.2,6.9,50,0.00,CLR,,0.00,0.0,WeatherDisplay:10.37,2013-04-06 02:12:00,
2013-04-05 21:13:00,60.7,41.9,29.87,South,190,5.0,12.0,50,0.00,CLR,,0.00,0.0,WeatherDisplay:10.37,2013-04-06 02:13:00,
2013-04-05 21:17:00,60.7,41.4,29.87,SSE,152,4.4,6.9,49,0.00,CLR,,0.00,0.0,WeatherDisplay:10.37,2013-04-06 02:17:00,
2013-04-05 21:18:00,60.7,41.9,29.87,SSW,211,3.6,5.8,50,0.00,CLR,,0.00,0.0,WeatherDisplay:10.37,2013-04-06 02:18:00,
2013-04-05 21:22:00,60.6,41.8,29.87,South,175,3.7,5.8,50,0.00,CLR,,0.00,0.0,WeatherDisplay:10.37,2013-04-06 02:22:00,
2013-04-05 21:23:00,60.6,41.8,29.87,South,175,3.1,5.8,50,0.00,CLR,,0.00,0.0,WeatherDisplay:10.37,2013-04-06 02:23:00,
2013-04-05 21:27:00,60.4,41.7,29.86,South,175,3.3,4.0,50,0.00,CLR,,0.00,0.0,WeatherDisplay:10.37,2013-04-06 02:27:00,
2013-04-05 21:28:00,60.3,41.6,29.86,South,185,2.8,3.5,50,0.00,CLR,,0.00,0.0,WeatherDisplay:10.37,2013-04-06 02:28:00,
2013-04-05 21:30:00,60.3,41.6,29.86,SSE,168,5.7,9.2,50,0.00,CLR,,0.00,0.0,WeatherDisplay:10.37,2013-04-06 02:30:00,
2013-04-05 21:32:00,60.3,41.6,29.86,South,169,3.1,5.8,50,0.00,CLR,,0.00,0.0,WeatherDisplay:10.37,2013-04-06 02:32:00,
2013-04-05 21:33:00,60.3,41.6,29.86,SSE,161,2.9,5.8,50,0.00,CLR,,0.00,0.0,WeatherDisplay:10.37,2013-04-06 02:33:00,
2013-04-05 21:37:00,60.3,41.6,29.86,South,171,7.6,11.5,50,0.00,CLR,,0.00,0.0,WeatherDisplay:10.37,2013-04-06 02:37:00,
2013-04-05 21:38:00,60.3,41.0,29.86,South,181,6.2,10.4,49,0.00,CLR,,0.00,0.0,WeatherDisplay:10.37,2013-04-06 02:38:00,
2013-04-05 21:42:00,60.5,40.7,29.86,SSE,150,5.3,10.4,48,0.00,CLR,,0.00,0.0,WeatherDisplay:10.37,2013-04-06 02:42:00,
2013-04-05 21:43:00,60.5,40.7,29.86,South,173,5.2,6.9,48,0.00,CLR,,0.00,0.0,WeatherDisplay:10.37,2013-04-06 02:43:00,
2013-04-05 21:47:00,60.5,40.2,29.86,South,182,4.5,9.2,47,0.00,CLR,,0.00,0.0,WeatherDisplay:10.37,2013-04-06 02:47:00,
2013-04-05 21:48:00,60.5,41.2,29.86,SSE,159,3.2,10.4,49,0.00,CLR,,0.00,0.0,WeatherDisplay:10.37,2013-04-06 02:48:00,
2013-04-05 21:49:00,60.5,40.7,29.86,South,181,4.6,6.0,48,0.00,CLR,,0.00,0.0,WeatherDisplay:10.37,2013-04-06 02:49:00,
2013-04-05 21:52:00,60.5,40.2,29.86,SW,229,4.9,6.9,47,0.00,CLR,,0.00,0.0,WeatherDisplay:10.37,2013-04-06 02:52:00,
2013-04-05 21:53:00,60.5,40.2,29.86,SW,221,5.0,12.0,47,0.00,CLR,,0.00,0.0,WeatherDisplay:10.37,2013-04-06 02:53:00,
2013-04-05 21:54:00,60.5,40.2,29.86,South,184,5.0,11.5,47,0.00,CLR,,0.00,0.0,WeatherDisplay:10.37,2013-04-06 02:54:00,
2013-04-05 21:58:00,60.4,40.1,29.86,SSE,165,5.9,11.5,47,0.00,CLR,,0.00,0.0,WeatherDisplay:10.37,2013-04-06 02:58:00,
2013-04-05 22:00:00,60.4,40.1,29.86,South,189,4.8,8.1,47,0.00,CLR,,0.00,0.0,WeatherDisplay:10.37,2013-04-06 03:00:00,
2013-04-05 22:03:00,60.3,40.0,29.86,South,171,4.8,8.1,47,0.00,CLR,,0.00,0.0,WeatherDisplay:10.37,2013-04-06 03:03:00,
2013-04-05 22:05:00,60.3,40.0,29.86,South,183,6.1,11.5,47,0.00,CLR,,0.00,0.0,WeatherDisplay:10.37,2013-04-06 03:05:00,
2013-04-05 22:06:00,60.3,40.5,29.86,South,182,3.4,11.5,48,0.00,CLR,,0.00,0.0,WeatherDisplay:10.37,2013-04-06 03:06:00,
2013-04-05 22:08:00,60.2,40.4,29.86,South,180,3.5,4.0,48,0.00,CLR,,0.00,0.0,WeatherDisplay:10.37,2013-04-06 03:08:00,
2013-04-05 22:10:00,60.2,40.4,29.86,South,176,5.2,6.9,48,0.00,CLR,,0.00,0.0,WeatherDisplay:10.37,2013-04-06 03:10:00,
2013-04-05 22:11:00,60.2,41.0,29.85,South,181,3.6,5.8,49,0.00,CLR,,0.00,0.0,WeatherDisplay:10.37,2013-04-06 03:11:00,
2013-04-05 22:12:00,60.1,40.9,29.85,SSE,154,2.9,5.8,49,0.00,CLR,,0.00,0.0,WeatherDisplay:10.37,2013-04-06 03:12:00,
2013-04-05 22:14:00,60.1,40.3,29.85,South,170,6.6,11.5,48,0.00,CLR,,0.00,0.0,WeatherDisplay:10.37,2013-04-06 03:14:00,
2013-04-05 22:15:00,60.1,40.3,29.85,South,173,5.2,11.5,48,0.00,CLR,,0.00,0.0,WeatherDisplay:10.37,2013-04-06 03:15:00,
2013-04-05 22:16:00,60.1,40.3,29.85,SE,141,3.5,8.1,48,0.00,CLR,,0.00,0.0,WeatherDisplay:10.37,2013-04-06 03:16:00,
2013-04-05 22:17:00,60.1,40.3,29.85,SSE,163,3.5,6.9,48,0.00,CLR,,0.00,0.0,WeatherDisplay:10.37,2013-04-06 03:17:00,
2013-04-05 22:19:00,60.0,40.2,29.86,SSE,159,4.1,9.2,48,0.00,CLR,,0.00,0.0,WeatherDisplay:10.37,2013-04-06 03:19:00,
2013-04-05 22:21:00,60.0,40.2,29.85,South,180,3.9,5.8,48,0.00,CLR,,0.00,0.0,WeatherDisplay:10.37,2013-04-06 03:21:00,
2013-04-05 22:22:00,60.0,40.2,29.85,South,182,5.1,11.0,48,0.00,CLR,,0.00,0.0,WeatherDisplay:10.37,2013-04-06 03:22:00,
2013-04-05 22:24:00,59.9,40.1,29.85,SE,141,5.4,10.4,48,0.00,CLR,,0.00,0.0,WeatherDisplay:10.37,2013-04-06 03:24:00,
2013-04-05 22:27:00,59.9,40.1,29.85,South,182,5.2,9.2,48,0.00,CLR,,0.00,0.0,WeatherDisplay:10.37,2013-04-06 03:27:00,
2013-04-05 22:30:00,59.8,40.1,29.85,SSE,163,4.5,9.2,48,0.00,CLR,,0.00,0.0,WeatherDisplay:10.37,2013-04-06 03:30:00,
2013-04-05 22:32:00,59.8,40.1,29.85,South,175,6.4,6.9,48,0.00,CLR,,0.00,0.0,WeatherDisplay:10.37,2013-04-06 03:32:00,
2013-04-05 22:33:00,59.8,40.1,29.85,SSW,194,6.1,8.1,48,0.00,CLR,,0.00,0.0,WeatherDisplay:10.37,2013-04-06 03:33:00,
2013-04-05 22:35:00,59.8,40.1,29.85,South,173,3.3,6.0,48,0.00,CLR,,0.00,0.0,WeatherDisplay:10.37,2013-04-06 03:35:00,
2013-04-05 22:37:00,59.7,40.0,29.85,South,169,3.5,5.8,48,0.00,CLR,,0.00,0.0,WeatherDisplay:10.37,2013-04-06 03:37:00,
2013-04-05 22:38:00,59.7,40.0,29.85,South,183,3.8,4.6,48,0.00,CLR,,0.00,0.0,WeatherDisplay:10.37,2013-04-06 03:38:00,
2013-04-05 22:40:00,59.7,40.0,29.85,South,187,5.1,10.4,48,0.00,CLR,,0.00,0.0,WeatherDisplay:10.37,2013-04-06 03:40:00,
2013-04-05 22:42:00,59.7,39.4,29.85,SSE,165,5.7,10.4,47,0.00,CLR,,0.00,0.0,WeatherDisplay:10.37,2013-04-06 03:42:00,
2013-04-05 22:43:00,59.7,39.4,29.85,SW,222,5.3,8.1,47,0.00,CLR,,0.00,0.0,WeatherDisplay:10.37,2013-04-06 03:43:00,
2013-04-05 22:45:00,59.7,39.4,29.85,South,182,3.3,7.0,47,0.00,CLR,,0.00,0.0,WeatherDisplay:10.37,2013-04-06 03:45:00,
2013-04-05 22:47:00,59.7,39.4,29.84,SSE,152,6.9,8.1,47,0.00,CLR,,0.00,0.0,WeatherDisplay:10.37,2013-04-06 03:47:00,
2013-04-05 22:48:00,59.6,39.3,29.84,East,93,5.0,11.5,47,0.00,CLR,,0.00,0.0,WeatherDisplay:10.37,2013-04-06 03:48:00,
2013-04-05 22:49:00,59.6,39.4,29.84,South,171,6.0,12.0,47,0.00,CLR,,0.00,0.0,WeatherDisplay:10.37,2013-04-06 03:49:00,
2013-04-05 22:51:00,59.6,39.9,29.84,SW,224,5.2,9.2,48,0.00,CLR,,0.00,0.0,WeatherDisplay:10.37,2013-04-06 03:51:00,
2013-04-05 22:53:00,59.5,39.8,29.84,SSW,200,2.0,4.6,48,0.00,CLR,,0.00,0.0,WeatherDisplay:10.37,2013-04-06 03:53:00,
2013-04-05 22:54:00,59.5,39.8,29.84,South,182,6.3,11.5,48,0.00,CLR,,0.00,0.0,WeatherDisplay:10.37,2013-04-06 03:54:00,
2013-04-05 22:56:00,59.5,39.8,29.84,SSE,147,4.9,9.2,48,0.00,CLR,,0.00,0.0,WeatherDisplay:10.37,2013-04-06 03:56:00,
2013-04-05 22:58:00,59.5,39.2,29.84,SSE,158,5.5,9.2,47,0.00,CLR,,0.00,0.0,WeatherDisplay:10.37,2013-04-06 03:58:00,
2013-04-05 23:00:00,59.5,39.2,29.84,South,187,5.7,5.8,47,0.00,CLR,,0.00,0.0,WeatherDisplay:10.37,2013-04-06 04:00:00,
2013-04-05 23:05:00,59.5,39.8,29.84,SE,131,4.3,9.2,48,0.00,CLR,,0.00,0.0,WeatherDisplay:10.37,2013-04-06 04:05:00,
2013-04-05 23:06:00,59.5,39.8,29.84,SSW,204,3.6,5.0,48,0.00,CLR,,0.00,0.0,WeatherDisplay:10.37,2013-04-06 04:06:00,
2013-04-05 23:10:00,59.4,39.7,29.83,SSE,165,6.1,6.9,48,0.00,CLR,,0.00,0.0,WeatherDisplay:10.37,2013-04-06 04:10:00,
2013-04-05 23:11:00,59.4,39.7,29.83,SSW,198,6.1,9.2,48,0.00,CLR,,0.00,0.0,WeatherDisplay:10.37,2013-04-06 04:11:00,
2013-04-05 23:12:00,59.4,39.7,29.83,SSE,166,5.0,6.9,48,0.00,CLR,,0.00,0.0,WeatherDisplay:10.37,2013-04-06 04:12:00,
2013-04-05 23:15:00,59.3,39.6,29.83,SSE,150,4.8,10.4,48,0.00,CLR,,0.00,0.0,WeatherDisplay:10.37,2013-04-06 04:15:00,
2013-04-05 23:17:00,59.3,39.6,29.83,South,188,5.5,10.4,48,0.00,CLR,,0.00,0.0,WeatherDisplay:10.37,2013-04-06 04:17:00,
2013-04-05 23:21:00,59.3,39.6,29.83,South,169,3.3,4.6,48,0.00,CLR,,0.00,0.0,WeatherDisplay:10.37,2013-04-06 04:21:00,
2013-04-05 23:22:00,59.1,39.4,29.83,SSW,196,4.8,10.4,48,0.00,CLR,,0.00,0.0,WeatherDisplay:10.37,2013-04-06 04:22:00,
2013-04-05 23:26:00,59.0,39.3,29.83,South,169,4.8,7.0,48,0.00,CLR,,0.00,0.0,WeatherDisplay:10.37,2013-04-06 04:26:00,
2013-04-05 23:27:00,59.0,39.9,29.83,South,175,4.6,11.5,49,0.00,CLR,,0.00,0.0,WeatherDisplay:10.37,2013-04-06 04:27:00,
2013-04-05 23:28:00,59.0,39.9,29.83,SSE,155,4.1,6.9,49,0.00,CLR,,0.00,0.0,WeatherDisplay:10.37,2013-04-06 04:28:00,
2013-04-05 23:32:00,58.7,39.6,29.82,SSE,162,3.9,5.8,49,0.00,CLR,,0.00,0.0,WeatherDisplay:10.37,2013-04-06 04:32:00,
2013-04-05 23:33:00,58.7,39.6,29.82,SSW,196,3.0,4.0,49,0.00,CLR,,0.00,0.0,WeatherDisplay:10.37,2013-04-06 04:33:00,
2013-04-05 23:37:00,58.4,39.8,29.82,ESE,111,4.1,6.9,50,0.00,CLR,,0.00,0.0,WeatherDisplay:10.37,2013-04-06 04:37:00,
2013-04-05 23:38:00,58.4,39.8,29.82,South,179,4.5,9.2,50,0.00,CLR,,0.00,0.0,WeatherDisplay:10.37,2013-04-06 04:38:00,
2013-04-05 23:42:00,58.2,39.6,29.82,South,182,6.7,8.0,50,0.00,CLR,,0.00,0.0,WeatherDisplay:10.37,2013-04-06 04:42:00,
2013-04-05 23:43:00,58.2,39.6,29.82,SSW,192,6.6,11.5,50,0.00,CLR,,0.00,0.0,WeatherDisplay:10.37,2013-04-06 04:43:00,
2013-04-05 23:47:00,58.2,39.6,29.82,SSW,198,4.0,9.2,50,0.00,CLR,,0.00,0.0,WeatherDisplay:10.37,2013-04-06 04:47:00,
2013-04-05 23:48:00,58.2,40.1,29.82,SSE,164,6.6,10.4,51,0.00,CLR,,0.00,0.0,WeatherDisplay:10.37,2013-04-06 04:48:00,
2013-04-05 23:52:00,58.2,39.6,29.82,South,173,4.2,9.2,50,0.00,CLR,,0.00,0.0,WeatherDisplay:10.37,2013-04-06 04:52:00,
2013-04-05 23:53:00,58.2,40.1,29.82,South,184,3.9,5.8,51,0.00,CLR,,0.00,0.0,WeatherDisplay:10.37,2013-04-06 04:53:00,
2013-04-05 23:54:00,58.1,39.6,29.82,South,176,5.0,9.0,50,0.00,CLR,,0.00,0.0,WeatherDisplay:10.37,2013-04-06 04:54:00,
2013-04-05 23:57:00,58.0,40.0,29.82,SSE,155,3.5,9.2,51,0.00,CLR,,0.00,0.0,WeatherDisplay:10.37,2013-04-06 04:57:00,
2013-04-05 23:58:00,58.0,40.0,29.82,South,169,4.7,5.8,51,0.00,CLR,,0.00,0.0,WeatherDisplay:10.37,2013-04-06 04:58:00,
2013-04-05 23:59:00,58.0,40.0,29.82,SSE,162,2.9,8.1,51,0.00,CLR,,0.00,0.0,WeatherDisplay:10.37,2013-04-06 04:59:00,